Time,TemperatureF,DewpointF,PressureIn,WindDirection,WindDirectionDegrees,WindSpeedMPH,WindSpeedGustMPH,Humidity,HourlyPrecipIn,Conditions,Clouds,dailyrainin,SolarRadiationWatts/m^2,SoftwareType,DateUTC
2013-01-19 00:00:00,37.8,30.6,30.02,SSW,203,8.8,9.9,75,0.00,,,0.00,0.00,VWS V14.01,2013-01-19 06:00:00,
2013-01-19 00:01:00,37.8,30.6,30.02,WSW,245,8.8,11.0,75,0.00,,,0.00,0.00,VWS V14.01,2013-01-19 06:01:00,
2013-01-19 00:03:00,37.7,30.5,30.03,WSW,241,9.9,14.3,75,0.00,,,0.00,0.00,VWS V14.01,2013-01-19 06:03:00,
2013-01-19 00:04:00,37.7,30.5,30.03,SW,229,9.9,18.7,75,0.00,,,0.00,0.00,VWS V14.01,2013-01-19 06:04:00,
2013-01-19 00:06:00,37.7,30.5,30.03,SSW,207,7.7,19.8,75,0.00,,,0.00,0.00,VWS V14.01,2013-01-19 06:06:00,
2013-01-19 00:07:00,37.7,30.8,30.02,SW,216,15.4,16.5,76,0.00,,,0.00,0.00,VWS V14.01,2013-01-19 06:07:00,
2013-01-19 00:09:00,37.6,30.7,30.02,WSW,241,13.2,19.8,76,0.00,,,0.00,0.00,VWS V14.01,2013-01-19 06:09:00,
2013-01-19 00:10:00,37.6,30.7,30.03,SSW,205,11.0,18.7,76,0.00,,,0.00,0.00,VWS V14.01,2013-01-19 06:10:00,
2013-01-19 00:12:00,37.6,30.7,30.03,WSW,245,13.2,16.5,76,0.00,,,0.00,0.00,VWS V14.01,2013-01-19 06:12:00,
2013-01-19 00:14:00,37.6,30.7,30.02,SW,217,12.1,20.9,76,0.00,,,0.00,0.00,VWS V14.01,2013-01-19 06:14:00,
2013-01-19 00:15:00,37.6,30.7,30.03,WSW,241,9.9,16.5,76,0.00,,,0.00,0.00,VWS V14.01,2013-01-19 06:15:00,
2013-01-19 00:17:00,37.6,30.7,30.02,WSW,247,9.9,12.1,76,0.00,,,0.00,0.00,VWS V14.01,2013-01-19 06:17:00,
2013-01-19 00:18:00,37.6,30.7,30.02,WSW,237,15.4,15.4,76,0.00,,,0.00,0.00,VWS V14.01,2013-01-19 06:18:00,
2013-01-19 00:19:00,37.7,30.8,30.02,SSW,204,15.4,15.4,76,0.00,,,0.00,0.00,VWS V14.01,2013-01-19 06:19:00,
2013-01-19 00:21:00,37.6,30.7,30.02,WSW,240,17.6,17.6,76,0.00,,,0.00,0.00,VWS V14.01,2013-01-19 06:21:00,
2013-01-19 00:23:00,37.7,30.8,30.02,SSW,212,16.5,16.5,76,0.00,,,0.00,0.00,VWS V14.01,2013-01-19 06:23:00,
2013-01-19 00:24:00,37.7,30.8,30.02,SW,214,8.8,8.8,76,0.00,,,0.00,0.00,VWS V14.01,2013-01-19 06:24:00,
2013-01-19 00:26:00,37.7,30.8,30.02,SSW,206,13.2,13.2,76,0.00,,,0.00,0.00,VWS V14.01,2013-01-19 06:26:00,
2013-01-19 00:28:00,37.7,30.8,30.02,WSW,237,12.1,16.5,76,0.00,,,0.00,0.00,VWS V14.01,2013-01-19 06:28:00,
2013-01-19 00:30:00,37.8,30.9,30.02,SW,216,6.6,14.3,76,0.00,,,0.00,0.00,VWS V14.01,2013-01-19 06:30:00,
2013-01-19 00:32:00,37.7,30.8,30.02,WSW,245,7.7,11.0,76,0.00,,,0.00,0.00,VWS V14.01,2013-01-19 06:32:00,
2013-01-19 00:33:00,37.7,30.8,30.02,SSW,209,8.8,11.0,76,0.00,,,0.00,0.00,VWS V14.01,2013-01-19 06:33:00,
2013-01-19 00:34:00,37.7,30.8,30.02,WSW,245,17.6,17.6,76,0.00,,,0.00,0.00,VWS V14.01,2013-01-19 06:34:00,
2013-01-19 00:35:00,37.7,30.8,30.02,SW,221,19.8,19.8,76,0.00,,,0.00,0.00,VWS V14.01,2013-01-19 06:35:00,
2013-01-19 00:37:00,37.7,30.8,30.02,South,176,6.6,19.8,76,0.00,,,0.00,0.00,VWS V14.01,2013-01-19 06:37:00,
2013-01-19 00:39:00,37.8,30.9,30.02,West,271,5.5,15.4,76,0.00,,,0.00,0.00,VWS V14.01,2013-01-19 06:39:00,
2013-01-19 00:40:00,37.8,30.9,30.02,South,186,13.2,17.6,76,0.00,,,0.00,0.00,VWS V14.01,2013-01-19 06:40:00,
2013-01-19 00:42:00,37.8,30.6,30.02,WSW,250,11.0,17.6,75,0.00,,,0.00,0.00,VWS V14.01,2013-01-19 06:42:00,
2013-01-19 00:45:00,37.8,30.9,30.02,SW,230,7.7,22.0,76,0.00,,,0.00,0.00,VWS V14.01,2013-01-19 06:45:00,
2013-01-19 00:46:00,37.9,30.7,30.02,SSW,198,14.3,14.3,75,0.00,,,0.00,0.00,VWS V14.01,2013-01-19 06:46:00,
2013-01-19 00:50:00,38.0,30.8,30.02,South,189,12.1,18.7,75,0.00,,,0.00,0.00,VWS V14.01,2013-01-19 06:50:00,
2013-01-19 00:52:00,38.0,30.8,30.02,SW,228,11.0,15.4,75,0.00,,,0.00,0.00,VWS V14.01,2013-01-19 06:52:00,
2013-01-19 00:55:00,37.9,30.7,30.02,WNW,285,8.8,19.8,75,0.00,,,0.00,0.00,VWS V14.01,2013-01-19 06:55:00,
2013-01-19 00:58:00,37.9,30.7,30.02,SW,234,9.9,14.3,75,0.00,,,0.00,0.00,VWS V14.01,2013-01-19 06:58:00,
2013-01-19 01:00:00,37.9,30.7,30.02,SW,224,15.4,16.5,75,0.00,,,0.00,0.00,VWS V14.01,2013-01-19 07:00:00,
2013-01-19 01:01:00,37.8,30.6,30.02,SW,233,11.0,14.3,75,0.00,,,0.00,0.00,VWS V14.01,2013-01-19 07:01:00,
2013-01-19 01:02:00,37.8,30.9,30.02,WSW,247,11.0,17.6,76,0.00,,,0.00,0.00,VWS V14.01,2013-01-19 07:02:00,
2013-01-19 01:03:00,37.8,30.9,30.03,SSW,204,14.3,19.8,76,0.00,,,0.00,0.00,VWS V14.01,2013-01-19 07:03:00,
2013-01-19 01:06:00,37.8,30.9,30.03,South,183,12.1,13.2,76,0.00,,,0.00,0.00,VWS V14.01,2013-01-19 07:06:00,
2013-01-19 01:07:00,37.9,30.7,30.02,SW,231,7.7,8.8,75,0.00,,,0.00,0.00,VWS V14.01,2013-01-19 07:07:00,
2013-01-19 01:08:00,37.8,30.9,30.02,SSW,194,5.5,8.8,76,0.00,,,0.00,0.00,VWS V14.01,2013-01-19 07:08:00,
2013-01-19 01:11:00,37.7,30.8,30.03,SW,227,11.0,13.2,76,0.00,,,0.00,0.00,VWS V14.01,2013-01-19 07:11:00,
2013-01-19 01:12:00,37.7,30.8,30.03,SW,233,4.4,16.5,76,0.00,,,0.00,0.00,VWS V14.01,2013-01-19 07:12:00,
2013-01-19 01:13:00,37.7,30.8,30.03,SW,236,7.7,16.5,76,0.00,,,0.00,0.00,VWS V14.01,2013-01-19 07:13:00,
2013-01-19 01:17:00,37.4,30.5,30.03,SSW,209,13.2,15.4,76,0.00,,,0.00,0.00,VWS V14.01,2013-01-19 07:17:00,
2013-01-19 01:18:00,37.4,30.5,30.03,SSW,212,12.1,16.5,76,0.00,,,0.00,0.00,VWS V14.01,2013-01-19 07:18:00,
2013-01-19 01:22:00,37.5,30.6,30.03,SW,218,11.0,19.8,76,0.00,,,0.00,0.00,VWS V14.01,2013-01-19 07:22:00,
2013-01-19 01:23:00,37.6,30.7,30.03,South,180,7.7,20.9,76,0.00,,,0.00,0.00,VWS V14.01,2013-01-19 07:23:00,
2013-01-19 01:24:00,37.6,30.7,30.03,WSW,251,13.2,14.3,76,0.00,,,0.00,0.00,VWS V14.01,2013-01-19 07:24:00,
2013-01-19 01:27:00,37.5,30.6,30.03,South,184,9.9,14.3,76,0.00,,,0.00,0.00,VWS V14.01,2013-01-19 07:27:00,
2013-01-19 01:29:00,37.6,30.7,30.03,SW,231,18.7,22.0,76,0.00,,,0.00,0.00,VWS V14.01,2013-01-19 07:29:00,
2013-01-19 01:30:00,37.6,30.7,30.03,SSW,197,7.7,18.7,76,0.00,,,0.00,0.00,VWS V14.01,2013-01-19 07:30:00,
2013-01-19 01:31:00,37.6,30.7,30.03,SSW,207,16.5,16.5,76,0.00,,,0.00,0.00,VWS V14.01,2013-01-19 07:31:00,
2013-01-19 01:33:00,37.7,30.8,30.03,SSW,208,18.7,18.7,76,0.00,,,0.00,0.00,VWS V14.01,2013-01-19 07:33:00,
2013-01-19 01:34:00,37.7,30.8,30.03,WSW,253,13.2,15.4,76,0.00,,,0.00,0.00,VWS V14.01,2013-01-19 07:34:00,
2013-01-19 01:35:00,37.7,30.8,30.03,SSW,206,9.9,13.2,76,0.00,,,0.00,0.00,VWS V14.01,2013-01-19 07:35:00,
2013-01-19 01:36:00,37.7,30.8,30.03,SW,233,6.6,13.2,76,0.00,,,0.00,0.00,VWS V14.01,2013-01-19 07:36:00,
2013-01-19 01:38:00,37.6,30.7,30.03,SW,228,7.7,13.2,76,0.00,,,0.00,0.00,VWS V14.01,2013-01-19 07:38:00,
2013-01-19 01:39:00,37.5,30.6,30.04,SW,229,12.1,12.1,76,0.00,,,0.00,0.00,VWS V14.01,2013-01-19 07:39:00,
2013-01-19 01:41:00,37.4,30.9,30.03,SSW,206,3.3,14.3,77,0.00,,,0.00,0.00,VWS V14.01,2013-01-19 07:41:00,
2013-01-19 01:43:00,37.3,30.8,30.04,SW,216,12.1,17.6,77,0.00,,,0.00,0.00,VWS V14.01,2013-01-19 07:43:00,
2013-01-19 01:44:00,37.2,30.7,30.04,SW,227,8.8,19.8,77,0.00,,,0.00,0.00,VWS V14.01,2013-01-19 07:44:00,
2013-01-19 01:45:00,37.1,30.6,30.04,SW,224,9.9,12.1,77,0.00,,,0.00,0.00,VWS V14.01,2013-01-19 07:45:00,
2013-01-19 01:46:00,37.1,30.6,30.04,SW,228,12.1,13.2,77,0.00,,,0.00,0.00,VWS V14.01,2013-01-19 07:46:00,
2013-01-19 01:48:00,37.1,30.9,30.04,SW,233,8.8,11.0,78,0.00,,,0.00,0.00,VWS V14.01,2013-01-19 07:48:00,
2013-01-19 01:50:00,37.0,30.8,30.04,SSW,206,8.8,8.8,78,0.00,,,0.00,0.00,VWS V14.01,2013-01-19 07:50:00,
2013-01-19 01:51:00,37.0,30.8,30.04,SW,236,12.1,13.2,78,0.00,,,0.00,0.00,VWS V14.01,2013-01-19 07:51:00,
2013-01-19 01:52:00,36.9,30.7,30.04,SW,216,14.3,14.3,78,0.00,,,0.00,0.00,VWS V14.01,2013-01-19 07:52:00,
2013-01-19 01:55:00,36.9,30.7,30.04,SSW,201,7.7,16.5,78,0.00,,,0.00,0.00,VWS V14.01,2013-01-19 07:55:00,
2013-01-19 01:57:00,36.8,30.6,30.04,SW,235,7.7,17.6,78,0.00,,,0.00,0.00,VWS V14.01,2013-01-19 07:57:00,
2013-01-19 02:00:00,36.8,30.6,30.04,SSW,192,6.6,9.9,78,0.00,,,0.00,0.00,VWS V14.01,2013-01-19 08:00:00,
2013-01-19 02:02:00,36.7,30.8,30.04,West,264,6.6,9.9,79,0.00,,,0.00,0.00,VWS V14.01,2013-01-19 08:02:00,
2013-01-19 02:05:00,36.6,30.7,30.04,SW,214,13.2,14.3,79,0.00,,,0.00,0.00,VWS V14.01,2013-01-19 08:05:00,
2013-01-19 02:06:00,36.5,30.6,30.04,WSW,247,8.8,8.8,79,0.00,,,0.00,0.00,VWS V14.01,2013-01-19 08:06:00,
2013-01-19 02:07:00,36.5,30.6,30.04,SW,216,11.0,16.5,79,0.00,,,0.00,0.00,VWS V14.01,2013-01-19 08:07:00,
2013-01-19 02:08:00,36.5,30.6,30.04,SSW,212,4.4,13.2,79,0.00,,,0.00,0.00,VWS V14.01,2013-01-19 08:08:00,
2013-01-19 02:10:00,36.5,30.6,30.04,SW,227,8.8,20.9,79,0.00,,,0.00,0.00,VWS V14.01,2013-01-19 08:10:00,
2013-01-19 02:12:00,36.5,30.6,30.04,SW,218,11.0,13.2,79,0.00,,,0.00,0.00,VWS V14.01,2013-01-19 08:12:00,
2013-01-19 02:13:00,36.5,30.6,30.04,SW,223,8.8,11.0,79,0.00,,,0.00,0.00,VWS V14.01,2013-01-19 08:13:00,
2013-01-19 02:14:00,36.4,30.5,30.04,SW,232,6.6,9.9,79,0.00,,,0.00,0.00,VWS V14.01,2013-01-19 08:14:00,
2013-01-19 02:15:00,36.4,30.5,30.04,WSW,245,6.6,12.1,79,0.00,,,0.00,0.00,VWS V14.01,2013-01-19 08:15:00,
2013-01-19 02:17:00,36.4,30.5,30.04,West,274,7.7,14.3,79,0.00,,,0.00,0.00,VWS V14.01,2013-01-19 08:17:00,
2013-01-19 02:18:00,36.3,30.4,30.04,WSW,258,12.1,12.1,79,0.00,,,0.00,0.00,VWS V14.01,2013-01-19 08:18:00,
2013-01-19 02:20:00,36.3,30.4,30.04,SW,216,8.8,13.2,79,0.00,,,0.00,0.00,VWS V14.01,2013-01-19 08:20:00,
2013-01-19 02:21:00,36.2,30.3,30.04,SSW,206,5.5,13.2,79,0.00,,,0.00,0.00,VWS V14.01,2013-01-19 08:21:00,
2013-01-19 02:22:00,36.3,30.4,30.04,SSW,204,4.4,14.3,79,0.00,,,0.00,0.00,VWS V14.01,2013-01-19 08:22:00,
2013-01-19 02:24:00,36.2,30.3,30.04,WSW,251,13.2,13.2,79,0.00,,,0.00,0.00,VWS V14.01,2013-01-19 08:24:00,
2013-01-19 02:27:00,36.3,30.4,30.04,WSW,251,12.1,13.2,79,0.00,,,0.00,0.00,VWS V14.01,2013-01-19 08:27:00,
2013-01-19 02:29:00,36.3,30.4,30.04,SW,220,6.6,13.2,79,0.00,,,0.00,0.00,VWS V14.01,2013-01-19 08:29:00,
2013-01-19 02:32:00,36.3,30.4,30.04,WSW,241,8.8,8.8,79,0.00,,,0.00,0.00,VWS V14.01,2013-01-19 08:32:00,
2013-01-19 02:33:00,36.3,30.4,30.04,SW,228,7.7,15.4,79,0.00,,,0.00,0.00,VWS V14.01,2013-01-19 08:33:00,
2013-01-19 02:34:00,36.3,30.4,30.04,WSW,241,8.8,12.1,79,0.00,,,0.00,0.00,VWS V14.01,2013-01-19 08:34:00,
2013-01-19 02:37:00,36.2,30.3,30.04,WSW,249,9.9,13.2,79,0.00,,,0.00,0.00,VWS V14.01,2013-01-19 08:37:00,
2013-01-19 02:38:00,36.2,30.3,30.04,SW,214,7.7,8.8,79,0.00,,,0.00,0.00,VWS V14.01,2013-01-19 08:38:00,
2013-01-19 02:40:00,36.2,30.3,30.04,WSW,240,9.9,11.0,79,0.00,,,0.00,0.00,VWS V14.01,2013-01-19 08:40:00,
2013-01-19 02:43:00,36.3,30.4,30.04,SW,220,11.0,13.2,79,0.00,,,0.00,0.00,VWS V14.01,2013-01-19 08:43:00,
2013-01-19 02:44:00,36.2,30.3,30.04,SSW,210,7.7,13.2,79,0.00,,,0.00,0.00,VWS V14.01,2013-01-19 08:44:00,
2013-01-19 02:45:00,36.2,30.3,30.04,SW,224,13.2,13.2,79,0.00,,,0.00,0.00,VWS V14.01,2013-01-19 08:45:00,
2013-01-19 02:48:00,36.2,30.3,30.04,WNW,289,5.5,12.1,79,0.00,,,0.00,0.00,VWS V14.01,2013-01-19 08:48:00,
2013-01-19 02:49:00,36.3,30.4,30.04,WSW,258,8.8,12.1,79,0.00,,,0.00,0.00,VWS V14.01,2013-01-19 08:49:00,
2013-01-19 02:50:00,36.2,30.3,30.04,SW,222,11.0,11.0,79,0.00,,,0.00,0.00,VWS V14.01,2013-01-19 08:50:00,
2013-01-19 02:53:00,36.3,30.4,30.03,SW,226,5.5,8.8,79,0.00,,,0.00,0.00,VWS V14.01,2013-01-19 08:53:00,
2013-01-19 02:55:00,36.3,30.4,30.04,SSW,211,9.9,11.0,79,0.00,,,0.00,0.00,VWS V14.01,2013-01-19 08:55:00,
2013-01-19 02:58:00,36.2,30.3,30.03,SW,215,7.7,8.8,79,0.00,,,0.00,0.00,VWS V14.01,2013-01-19 08:58:00,
2013-01-19 03:00:00,36.2,30.3,30.04,SW,234,6.6,11.0,79,0.00,,,0.00,0.00,VWS V14.01,2013-01-19 09:00:00,
2013-01-19 03:01:00,36.2,30.3,30.03,SW,232,8.8,12.1,79,0.00,,,0.00,0.00,VWS V14.01,2013-01-19 09:01:00,
2013-01-19 03:03:00,36.1,30.5,30.03,SW,233,7.7,11.0,80,0.00,,,0.00,0.00,VWS V14.01,2013-01-19 09:03:00,
2013-01-19 03:05:00,36.1,30.5,30.03,SSW,193,6.6,7.7,80,0.00,,,0.00,0.00,VWS V14.01,2013-01-19 09:05:00,
2013-01-19 03:06:00,36.1,30.5,30.03,SW,235,4.4,8.8,80,0.00,,,0.00,0.00,VWS V14.01,2013-01-19 09:06:00,
2013-01-19 03:09:00,36.0,30.4,30.03,SW,216,4.4,6.6,80,0.00,,,0.00,0.00,VWS V14.01,2013-01-19 09:09:00,
2013-01-19 03:11:00,36.0,30.4,30.03,SW,222,11.0,12.1,80,0.00,,,0.00,0.00,VWS V14.01,2013-01-19 09:11:00,
2013-01-19 03:12:00,36.0,30.4,30.03,SW,222,13.2,13.2,80,0.00,,,0.00,0.00,VWS V14.01,2013-01-19 09:12:00,
2013-01-19 03:14:00,36.0,30.4,30.03,WSW,252,7.7,8.8,80,0.00,,,0.00,0.00,VWS V14.01,2013-01-19 09:14:00,
2013-01-19 03:16:00,36.0,30.4,30.03,SSW,193,5.5,11.0,80,0.00,,,0.00,0.00,VWS V14.01,2013-01-19 09:16:00,
2013-01-19 03:17:00,36.0,30.4,30.03,SSW,197,7.7,7.7,80,0.00,,,0.00,0.00,VWS V14.01,2013-01-19 09:17:00,
2013-01-19 03:20:00,36.0,30.4,30.03,SSW,207,6.6,8.8,80,0.00,,,0.00,0.00,VWS V14.01,2013-01-19 09:20:00,
2013-01-19 03:22:00,36.0,30.4,30.03,SSW,205,7.7,8.8,80,0.00,,,0.00,0.00,VWS V14.01,2013-01-19 09:22:00,
2013-01-19 03:23:00,36.0,30.4,30.03,SW,225,13.2,13.2,80,0.00,,,0.00,0.00,VWS V14.01,2013-01-19 09:23:00,
2013-01-19 03:25:00,36.0,30.4,30.03,SW,214,8.8,12.1,80,0.00,,,0.00,0.00,VWS V14.01,2013-01-19 09:25:00,
2013-01-19 03:27:00,36.1,30.5,30.03,SSW,208,3.3,6.6,80,0.00,,,0.00,0.00,VWS V14.01,2013-01-19 09:27:00,
2013-01-19 03:28:00,36.1,30.5,30.03,SSW,208,2.2,6.6,80,0.00,,,0.00,0.00,VWS V14.01,2013-01-19 09:28:00,
2013-01-19 03:32:00,36.0,30.1,30.03,SSW,210,7.7,9.9,79,0.00,,,0.00,0.00,VWS V14.01,2013-01-19 09:32:00,
2013-01-19 03:33:00,36.0,30.4,30.03,WSW,243,11.0,14.3,80,0.00,,,0.00,0.00,VWS V14.01,2013-01-19 09:33:00,
2013-01-19 03:38:00,36.0,30.4,30.03,WSW,243,4.4,7.7,80,0.00,,,0.00,0.00,VWS V14.01,2013-01-19 09:38:00,
2013-01-19 03:39:00,36.0,30.1,30.03,WSW,241,5.5,13.2,79,0.00,,,0.00,0.00,VWS V14.01,2013-01-19 09:39:00,
2013-01-19 03:43:00,36.0,30.4,30.03,WSW,245,11.0,14.3,80,0.00,,,0.00,0.00,VWS V14.01,2013-01-19 09:43:00,
2013-01-19 03:44:00,36.0,30.4,30.03,SW,233,14.3,15.4,80,0.00,,,0.00,0.00,VWS V14.01,2013-01-19 09:44:00,
2013-01-19 03:45:00,36.1,30.5,30.03,SW,222,12.1,14.3,80,0.00,,,0.00,0.00,VWS V14.01,2013-01-19 09:45:00,
2013-01-19 03:48:00,36.2,30.3,30.02,SW,219,9.9,9.9,79,0.00,,,0.00,0.00,VWS V14.01,2013-01-19 09:48:00,
2013-01-19 03:49:00,36.2,30.3,30.02,SSW,211,13.2,13.2,79,0.00,,,0.00,0.00,VWS V14.01,2013-01-19 09:49:00,
2013-01-19 03:50:00,36.2,30.3,30.02,SW,215,8.8,8.8,79,0.00,,,0.00,0.00,VWS V14.01,2013-01-19 09:50:00,
2013-01-19 03:53:00,36.2,30.3,30.02,SW,214,8.8,8.8,79,0.00,,,0.00,0.00,VWS V14.01,2013-01-19 09:53:00,
2013-01-19 03:54:00,36.2,30.3,30.02,SSW,206,6.6,9.9,79,0.00,,,0.00,0.00,VWS V14.01,2013-01-19 09:54:00,
2013-01-19 03:56:00,36.2,30.3,30.02,SW,216,8.8,12.1,79,0.00,,,0.00,0.00,VWS V14.01,2013-01-19 09:56:00,
2013-01-19 04:00:00,36.2,30.3,30.02,SSW,202,12.1,13.2,79,0.00,,,0.00,0.00,VWS V14.01,2013-01-19 10:00:00,
2013-01-19 04:01:00,36.2,30.3,30.02,SSW,193,7.7,8.8,79,0.00,,,0.00,0.00,VWS V14.01,2013-01-19 10:01:00,
2013-01-19 04:05:00,36.2,30.3,30.02,SSW,207,4.4,7.7,79,0.00,,,0.00,0.00,VWS V14.01,2013-01-19 10:05:00,
2013-01-19 04:06:00,36.2,30.3,30.02,WSW,238,3.3,9.9,79,0.00,,,0.00,0.00,VWS V14.01,2013-01-19 10:06:00,
2013-01-19 04:10:00,36.1,30.2,30.02,SSE,166,6.6,6.6,79,0.00,,,0.00,0.00,VWS V14.01,2013-01-19 10:10:00,
2013-01-19 04:11:00,36.1,30.2,30.02,South,187,12.1,12.1,79,0.00,,,0.00,0.00,VWS V14.01,2013-01-19 10:11:00,
2013-01-19 04:12:00,36.1,30.2,30.02,SSW,201,8.8,8.8,79,0.00,,,0.00,0.00,VWS V14.01,2013-01-19 10:12:00,
2013-01-19 04:15:00,36.1,30.2,30.02,SSW,208,6.6,9.9,79,0.00,,,0.00,0.00,VWS V14.01,2013-01-19 10:15:00,
2013-01-19 04:16:00,36.1,30.2,30.02,SSW,197,16.5,16.5,79,0.00,,,0.00,0.00,VWS V14.01,2013-01-19 10:16:00,
2013-01-19 04:17:00,36.1,30.2,30.02,SW,214,11.0,16.5,79,0.00,,,0.00,0.00,VWS V14.01,2013-01-19 10:17:00,
2013-01-19 04:18:00,36.0,30.1,30.02,South,187,7.7,15.4,79,0.00,,,0.00,0.00,VWS V14.01,2013-01-19 10:18:00,
2013-01-19 04:20:00,36.0,30.1,30.02,South,188,9.9,9.9,79,0.00,,,0.00,0.00,VWS V14.01,2013-01-19 10:20:00,
2013-01-19 04:22:00,36.0,30.1,30.02,SW,222,12.1,12.1,79,0.00,,,0.00,0.00,VWS V14.01,2013-01-19 10:22:00,
2013-01-19 04:23:00,36.0,30.1,30.02,SW,223,5.5,13.2,79,0.00,,,0.00,0.00,VWS V14.01,2013-01-19 10:23:00,
2013-01-19 04:26:00,35.9,30.3,30.01,SSW,209,9.9,17.6,80,0.00,,,0.00,0.00,VWS V14.01,2013-01-19 10:26:00,
2013-01-19 04:27:00,35.9,30.3,30.01,SSW,196,7.7,12.1,80,0.00,,,0.00,0.00,VWS V14.01,2013-01-19 10:27:00,
2013-01-19 04:28:00,35.9,30.3,30.02,WSW,253,5.5,14.3,80,0.00,,,0.00,0.00,VWS V14.01,2013-01-19 10:28:00,
2013-01-19 04:32:00,35.9,30.3,30.02,SW,222,6.6,9.9,80,0.00,,,0.00,0.00,VWS V14.01,2013-01-19 10:32:00,
2013-01-19 04:33:00,35.9,30.3,30.02,SSW,205,7.7,12.1,80,0.00,,,0.00,0.00,VWS V14.01,2013-01-19 10:33:00,
2013-01-19 04:34:00,35.9,30.3,30.02,SSW,201,5.5,12.1,80,0.00,,,0.00,0.00,VWS V14.01,2013-01-19 10:34:00,
2013-01-19 04:37:00,35.8,30.2,30.01,SSW,206,7.7,9.9,80,0.00,,,0.00,0.00,VWS V14.01,2013-01-19 10:37:00,
2013-01-19 04:38:00,35.8,30.2,30.01,South,189,4.4,4.4,80,0.00,,,0.00,0.00,VWS V14.01,2013-01-19 10:38:00,
2013-01-19 04:39:00,35.7,30.1,30.01,SSW,197,7.7,7.7,80,0.00,,,0.00,0.00,VWS V14.01,2013-01-19 10:39:00,
2013-01-19 04:43:00,35.7,30.1,30.01,WSW,241,8.8,16.5,80,0.00,,,0.00,0.00,VWS V14.01,2013-01-19 10:43:00,
2013-01-19 04:44:00,35.7,30.1,30.01,SW,214,11.0,12.1,80,0.00,,,0.00,0.00,VWS V14.01,2013-01-19 10:44:00,
2013-01-19 04:48:00,35.7,30.1,30.01,SW,221,9.9,9.9,80,0.00,,,0.00,0.00,VWS V14.01,2013-01-19 10:48:00,
2013-01-19 04:49:00,35.6,30.0,30.02,SSW,208,7.7,7.7,80,0.00,,,0.00,0.00,VWS V14.01,2013-01-19 10:49:00,
2013-01-19 04:50:00,35.6,30.0,30.02,SW,222,9.9,9.9,80,0.00,,,0.00,0.00,VWS V14.01,2013-01-19 10:50:00,
2013-01-19 04:53:00,35.7,30.5,30.01,SW,222,8.8,13.2,81,0.00,,,0.00,0.00,VWS V14.01,2013-01-19 10:53:00,
2013-01-19 04:54:00,35.7,30.5,30.01,SW,229,6.6,6.6,81,0.00,,,0.00,0.00,VWS V14.01,2013-01-19 10:54:00,
2013-01-19 04:55:00,35.7,30.5,30.01,SW,228,8.8,14.3,81,0.00,,,0.00,0.00,VWS V14.01,2013-01-19 10:55:00,
2013-01-19 04:59:00,35.7,30.1,30.01,SSE,166,12.1,12.1,80,0.00,,,0.00,0.00,VWS V14.01,2013-01-19 10:59:00,
2013-01-19 05:00:00,35.7,30.1,30.01,South,191,7.7,11.0,80,0.00,,,0.00,0.00,VWS V14.01,2013-01-19 11:00:00,
2013-01-19 05:02:00,35.7,30.1,30.01,SSE,163,8.8,12.1,80,0.00,,,0.00,0.00,VWS V14.01,2013-01-19 11:02:00,
2013-01-19 05:04:00,35.7,30.1,30.01,SW,215,6.6,11.0,80,0.00,,,0.00,0.00,VWS V14.01,2013-01-19 11:04:00,
2013-01-19 05:05:00,35.7,30.1,30.01,SSW,201,7.7,7.7,80,0.00,,,0.00,0.00,VWS V14.01,2013-01-19 11:05:00,
2013-01-19 05:07:00,35.7,30.1,30.01,South,189,9.9,11.0,80,0.00,,,0.00,0.00,VWS V14.01,2013-01-19 11:07:00,
2013-01-19 05:10:00,35.7,30.1,30.01,SW,218,13.2,13.2,80,0.00,,,0.00,0.00,VWS V14.01,2013-01-19 11:10:00,
2013-01-19 05:12:00,35.8,30.2,30.01,South,178,4.4,8.8,80,0.00,,,0.00,0.00,VWS V14.01,2013-01-19 11:12:00,
2013-01-19 06:48:00,36.4,30.8,29.99,WSW,240,9.9,14.3,80,0.00,,,0.00,0.00,VWS V14.01,2013-01-19 12:48:00,
2013-01-19 06:49:00,36.5,30.9,29.99,SSW,193,15.4,15.4,80,0.00,,,0.00,0.00,VWS V14.01,2013-01-19 12:49:00,
2013-01-19 06:53:00,36.5,30.9,29.99,South,179,5.5,8.8,80,0.00,,,0.00,0.00,VWS V14.01,2013-01-19 12:53:00,
2013-01-19 06:54:00,36.4,30.8,29.99,South,181,3.3,6.6,80,0.00,,,0.00,0.00,VWS V14.01,2013-01-19 12:54:00,
2013-01-19 06:58:00,36.4,30.8,29.99,South,184,12.1,14.3,80,0.00,,,0.00,0.00,VWS V14.01,2013-01-19 12:58:00,
2013-01-19 06:59:00,36.4,30.8,29.99,SSW,210,7.7,14.3,80,0.00,,,0.00,0.00,VWS V14.01,2013-01-19 12:59:00,
2013-01-19 07:00:00,36.5,30.9,29.99,SW,234,13.2,13.2,80,0.00,,,0.00,0.00,VWS V14.01,2013-01-19 13:00:00,
2013-01-19 07:03:00,36.4,30.8,29.99,SSW,195,9.9,11.0,80,0.00,,,0.00,0.00,VWS V14.01,2013-01-19 13:03:00,
2013-01-19 07:04:00,36.4,30.8,29.99,SSW,205,5.5,11.0,80,0.00,,,0.00,0.00,VWS V14.01,2013-01-19 13:04:00,
2013-01-19 07:07:00,36.4,30.8,29.98,SSW,208,5.5,5.5,80,0.00,,,0.00,7.00,VWS V14.01,2013-01-19 13:07:00,
2013-01-19 07:09:00,36.4,30.8,29.98,South,185,7.7,7.7,80,0.00,,,0.00,7.00,VWS V14.01,2013-01-19 13:09:00,
2013-01-19 07:14:00,36.4,30.8,29.98,SW,224,6.6,16.5,80,0.00,,,0.00,9.00,VWS V14.01,2013-01-19 13:14:00,
2013-01-19 07:15:00,36.4,30.8,29.98,SE,143,9.9,9.9,80,0.00,,,0.00,9.00,VWS V14.01,2013-01-19 13:15:00,
2013-01-19 07:19:00,36.5,30.9,29.98,SSW,199,7.7,15.4,80,0.00,,,0.00,11.00,VWS V14.01,2013-01-19 13:19:00,
2013-01-19 07:22:00,36.4,30.8,29.98,SW,226,7.7,11.0,80,0.00,,,0.00,14.00,VWS V14.01,2013-01-19 13:22:00,
2013-01-19 07:24:00,36.4,30.8,29.98,SW,225,7.7,7.7,80,0.00,,,0.00,16.00,VWS V14.01,2013-01-19 13:24:00,
2013-01-19 07:25:00,36.3,30.7,29.98,SSW,212,4.4,7.7,80,0.00,,,0.00,18.00,VWS V14.01,2013-01-19 13:25:00,
2013-01-19 07:28:00,36.2,30.6,29.98,SW,218,5.5,7.7,80,0.00,,,0.00,25.00,VWS V14.01,2013-01-19 13:28:00,
2013-01-19 07:29:00,36.2,30.6,29.98,SSW,201,7.7,8.8,80,0.00,,,0.00,28.00,VWS V14.01,2013-01-19 13:29:00,
2013-01-19 07:30:00,36.1,30.5,29.98,SW,216,12.1,13.2,80,0.00,,,0.00,28.00,VWS V14.01,2013-01-19 13:30:00,
2013-01-19 07:33:00,36.2,30.9,29.98,SSW,213,5.5,7.7,81,0.00,,,0.00,35.00,VWS V14.01,2013-01-19 13:33:00,
2013-01-19 07:34:00,36.2,30.9,29.98,SSW,212,6.6,8.8,81,0.00,,,0.00,37.00,VWS V14.01,2013-01-19 13:34:00,
2013-01-19 07:35:00,36.2,30.9,29.98,SW,216,6.6,8.8,81,0.00,,,0.00,40.00,VWS V14.01,2013-01-19 13:35:00,
2013-01-19 07:36:00,36.2,30.9,29.98,South,181,7.7,15.4,81,0.00,,,0.00,42.00,VWS V14.01,2013-01-19 13:36:00,
2013-01-19 07:38:00,36.4,31.1,29.97,SSW,208,11.0,13.2,81,0.00,,,0.00,49.00,VWS V14.01,2013-01-19 13:38:00,
2013-01-19 07:40:00,36.4,30.8,29.97,SSW,194,8.8,13.2,80,0.00,,,0.00,51.00,VWS V14.01,2013-01-19 13:40:00,
2013-01-19 07:41:00,36.5,30.9,29.97,South,174,2.2,4.4,80,0.00,,,0.00,53.00,VWS V14.01,2013-01-19 13:41:00,
2013-01-19 07:44:00,36.6,31.0,29.97,SSW,196,11.0,11.0,80,0.00,,,0.00,54.00,VWS V14.01,2013-01-19 13:44:00,
2013-01-19 07:45:00,36.7,31.1,29.97,SW,224,12.1,12.1,80,0.00,,,0.00,56.00,VWS V14.01,2013-01-19 13:45:00,
2013-01-19 07:46:00,36.7,31.1,29.97,SSW,206,12.1,12.1,80,0.00,,,0.00,58.00,VWS V14.01,2013-01-19 13:46:00,
2013-01-19 07:47:00,36.8,31.2,29.97,South,182,6.6,9.9,80,0.00,,,0.00,62.00,VWS V14.01,2013-01-19 13:47:00,
2013-01-19 07:49:00,36.9,31.3,29.97,SW,231,6.6,14.3,80,0.00,,,0.00,65.00,VWS V14.01,2013-01-19 13:49:00,
2013-01-19 07:50:00,37.0,31.4,29.97,SW,216,7.7,9.9,80,0.00,,,0.00,69.00,VWS V14.01,2013-01-19 13:50:00,
2013-01-19 07:51:00,37.0,31.4,29.97,South,174,6.6,8.8,80,0.00,,,0.00,69.00,VWS V14.01,2013-01-19 13:51:00,
2013-01-19 07:52:00,37.1,31.2,29.97,South,191,13.2,13.2,79,0.00,,,0.00,70.00,VWS V14.01,2013-01-19 13:52:00,
2013-01-19 07:54:00,37.2,31.3,29.97,SSW,201,7.7,7.7,79,0.00,,,0.00,74.00,VWS V14.01,2013-01-19 13:54:00,
2013-01-19 07:56:00,37.3,31.4,29.97,SW,233,8.8,13.2,79,0.00,,,0.00,76.00,VWS V14.01,2013-01-19 13:56:00,
2013-01-19 07:57:00,37.4,31.5,29.97,WSW,246,5.5,6.6,79,0.00,,,0.00,79.00,VWS V14.01,2013-01-19 13:57:00,
2013-01-19 07:58:00,37.4,31.5,29.97,South,185,8.8,12.1,79,0.00,,,0.00,79.00,VWS V14.01,2013-01-19 13:58:00,
2013-01-19 07:59:00,37.5,31.6,29.97,SSW,193,7.7,12.1,79,0.00,,,0.00,86.00,VWS V14.01,2013-01-19 13:59:00,
2013-01-19 08:01:00,37.6,31.7,29.97,SSW,197,8.8,14.3,79,0.00,,,0.00,91.00,VWS V14.01,2013-01-19 14:01:00,
2013-01-19 08:02:00,37.7,31.8,29.97,WSW,238,9.9,9.9,79,0.00,,,0.00,95.00,VWS V14.01,2013-01-19 14:02:00,
2013-01-19 08:03:00,37.7,31.8,29.97,SSW,193,7.7,8.8,79,0.00,,,0.00,98.00,VWS V14.01,2013-01-19 14:03:00,
2013-01-19 08:04:00,37.8,31.6,29.97,SSW,207,7.7,15.4,78,0.00,,,0.00,100.00,VWS V14.01,2013-01-19 14:04:00,
2013-01-19 08:06:00,37.9,31.7,29.97,SSW,201,8.8,13.2,78,0.00,,,0.00,104.00,VWS V14.01,2013-01-19 14:06:00,
2013-01-19 08:08:00,37.9,31.7,29.96,SSW,192,3.3,11.0,78,0.00,,,0.00,105.00,VWS V14.01,2013-01-19 14:08:00,
2013-01-19 08:09:00,38.0,31.8,29.97,SSW,207,8.8,13.2,78,0.00,,,0.00,105.00,VWS V14.01,2013-01-19 14:09:00,
2013-01-19 08:10:00,38.0,31.8,29.96,SSW,197,6.6,11.0,78,0.00,,,0.00,109.00,VWS V14.01,2013-01-19 14:10:00,
2013-01-19 08:12:00,38.2,32.0,29.96,SW,215,11.0,11.0,78,0.00,,,0.00,107.00,VWS V14.01,2013-01-19 14:12:00,
2013-01-19 08:13:00,38.2,32.0,29.96,WSW,237,3.3,11.0,78,0.00,,,0.00,104.00,VWS V14.01,2013-01-19 14:13:00,
2013-01-19 08:14:00,38.2,32.0,29.96,SSW,206,8.8,12.1,78,0.00,,,0.00,104.00,VWS V14.01,2013-01-19 14:14:00,
2013-01-19 08:15:00,38.3,32.0,29.97,South,173,16.5,16.5,78,0.00,,,0.00,107.00,VWS V14.01,2013-01-19 14:15:00,
2013-01-19 08:18:00,38.4,31.8,29.96,SSW,202,8.8,11.0,77,0.00,,,0.00,114.00,VWS V14.01,2013-01-19 14:18:00,
2013-01-19 08:19:00,38.4,31.8,29.96,South,185,4.4,9.9,77,0.00,,,0.00,116.00,VWS V14.01,2013-01-19 14:19:00,
2013-01-19 08:20:00,38.5,31.9,29.96,SSW,199,11.0,11.0,77,0.00,,,0.00,118.00,VWS V14.01,2013-01-19 14:20:00,
2013-01-19 08:23:00,38.6,32.0,29.96,SSW,200,11.0,14.3,77,0.00,,,0.00,132.00,VWS V14.01,2013-01-19 14:23:00,
2013-01-19 08:25:00,38.7,32.1,29.96,SSW,211,6.6,14.3,77,0.00,,,0.00,134.00,VWS V14.01,2013-01-19 14:25:00,
2013-01-19 08:26:00,38.8,32.2,29.96,SW,216,8.8,8.8,77,0.00,,,0.00,137.00,VWS V14.01,2013-01-19 14:26:00,
2013-01-19 08:28:00,38.9,32.3,29.97,SW,226,9.9,9.9,77,0.00,,,0.00,134.00,VWS V14.01,2013-01-19 14:28:00,
2013-01-19 08:30:00,39.0,32.1,29.97,SSW,210,11.0,14.3,76,0.00,,,0.00,128.00,VWS V14.01,2013-01-19 14:30:00,
2013-01-19 08:31:00,39.1,32.2,29.97,SSW,206,8.8,14.3,76,0.00,,,0.00,127.00,VWS V14.01,2013-01-19 14:31:00,
2013-01-19 08:32:00,39.1,32.2,29.97,SW,233,6.6,15.4,76,0.00,,,0.00,127.00,VWS V14.01,2013-01-19 14:32:00,
2013-01-19 08:33:00,39.2,32.3,29.97,SSW,211,4.4,7.7,76,0.00,,,0.00,125.00,VWS V14.01,2013-01-19 14:33:00,
2013-01-19 08:35:00,39.3,32.4,29.97,SSE,166,8.8,12.1,76,0.00,,,0.00,130.00,VWS V14.01,2013-01-19 14:35:00,
2013-01-19 08:37:00,39.5,32.6,29.97,South,184,9.9,11.0,76,0.00,,,0.00,134.00,VWS V14.01,2013-01-19 14:37:00,
2013-01-19 08:39:00,39.7,32.4,29.97,WSW,250,6.6,9.9,75,0.00,,,0.00,125.00,VWS V14.01,2013-01-19 14:39:00,
2013-01-19 08:40:00,39.8,32.5,29.97,South,181,13.2,16.5,75,0.00,,,0.00,121.00,VWS V14.01,2013-01-19 14:40:00,
2013-01-19 08:42:00,39.9,32.6,29.97,WSW,241,7.7,16.5,75,0.00,,,0.00,116.00,VWS V14.01,2013-01-19 14:42:00,
2013-01-19 08:43:00,39.9,32.6,29.97,SW,214,7.7,8.8,75,0.00,,,0.00,116.00,VWS V14.01,2013-01-19 14:43:00,
2013-01-19 08:45:00,40.0,32.7,29.97,SSW,192,5.5,7.7,75,0.00,,,0.00,111.00,VWS V14.01,2013-01-19 14:45:00,
2013-01-19 08:47:00,40.0,32.7,29.97,WSW,241,7.7,20.9,75,0.00,,,0.00,111.00,VWS V14.01,2013-01-19 14:47:00,
2013-01-19 08:48:00,40.0,32.7,29.97,SSW,196,8.8,20.9,75,0.00,,,0.00,113.00,VWS V14.01,2013-01-19 14:48:00,
2013-01-19 08:50:00,40.0,32.7,29.97,SSW,206,7.7,8.8,75,0.00,,,0.00,120.00,VWS V14.01,2013-01-19 14:50:00,
2013-01-19 08:51:00,40.0,32.7,29.97,SSW,199,11.0,11.0,75,0.00,,,0.00,123.00,VWS V14.01,2013-01-19 14:51:00,
2013-01-19 08:52:00,40.0,32.7,29.97,WSW,244,8.8,11.0,75,0.00,,,0.00,127.00,VWS V14.01,2013-01-19 14:52:00,
2013-01-19 08:53:00,40.0,32.7,29.97,South,170,4.4,9.9,75,0.00,,,0.00,132.00,VWS V14.01,2013-01-19 14:53:00,
2013-01-19 08:56:00,40.2,32.6,29.97,SW,226,12.1,15.4,74,0.00,,,0.00,144.00,VWS V14.01,2013-01-19 14:56:00,
2013-01-19 08:58:00,40.3,32.7,29.97,SSW,206,12.1,19.8,74,0.00,,,0.00,149.00,VWS V14.01,2013-01-19 14:58:00,
2013-01-19 08:59:00,40.3,32.7,29.97,WSW,239,16.5,19.8,74,0.00,,,0.00,151.00,VWS V14.01,2013-01-19 14:59:00,
2013-01-19 09:01:00,40.4,32.8,29.97,South,179,7.7,9.9,74,0.00,,,0.00,158.00,VWS V14.01,2013-01-19 15:01:00,
2013-01-19 09:02:00,40.4,32.8,29.97,SW,225,15.4,15.4,74,0.00,,,0.00,158.00,VWS V14.01,2013-01-19 15:02:00,
2013-01-19 09:03:00,40.5,32.9,29.97,SSW,193,13.2,17.6,74,0.00,,,0.00,160.00,VWS V14.01,2013-01-19 15:03:00,
2013-01-19 09:04:00,40.6,32.6,29.97,SSW,204,8.8,11.0,73,0.00,,,0.00,162.00,VWS V14.01,2013-01-19 15:04:00,
2013-01-19 09:07:00,40.7,32.7,29.97,SSW,211,13.2,14.3,73,0.00,,,0.00,160.00,VWS V14.01,2013-01-19 15:07:00,
2013-01-19 09:08:00,40.8,32.8,29.97,SSW,195,8.8,19.8,73,0.00,,,0.00,158.00,VWS V14.01,2013-01-19 15:08:00,
2013-01-19 09:10:00,40.9,32.9,29.97,SSW,206,7.7,15.4,73,0.00,,,0.00,153.00,VWS V14.01,2013-01-19 15:10:00,
2013-01-19 09:12:00,40.9,32.9,29.97,SW,227,6.6,15.4,73,0.00,,,0.00,144.00,VWS V14.01,2013-01-19 15:12:00,
2013-01-19 09:13:00,40.9,32.9,29.97,SSW,192,5.5,15.4,73,0.00,,,0.00,144.00,VWS V14.01,2013-01-19 15:13:00,
2013-01-19 09:14:00,40.9,32.9,29.97,WSW,252,14.3,17.6,73,0.00,,,0.00,137.00,VWS V14.01,2013-01-19 15:14:00,
2013-01-19 09:16:00,40.9,32.9,29.97,SW,226,19.8,19.8,73,0.00,,,0.00,130.00,VWS V14.01,2013-01-19 15:16:00,
2013-01-19 09:18:00,40.9,32.9,29.97,WSW,243,13.2,14.3,73,0.00,,,0.00,128.00,VWS V14.01,2013-01-19 15:18:00,
2013-01-19 09:20:00,40.9,32.9,29.96,South,188,9.9,15.4,73,0.00,,,0.00,139.00,VWS V14.01,2013-01-19 15:20:00,
2013-01-19 09:22:00,40.9,32.9,29.96,SW,222,11.0,15.4,73,0.00,,,0.00,162.00,VWS V14.01,2013-01-19 15:22:00,
2013-01-19 09:23:00,40.9,32.9,29.96,SSW,197,15.4,15.4,73,0.00,,,0.00,172.00,VWS V14.01,2013-01-19 15:23:00,
2013-01-19 09:24:00,41.0,33.0,29.96,SSW,195,5.5,7.7,73,0.00,,,0.00,181.00,VWS V14.01,2013-01-19 15:24:00,
2013-01-19 09:26:00,41.1,33.1,29.96,SSW,212,8.8,9.9,73,0.00,,,0.00,200.00,VWS V14.01,2013-01-19 15:26:00,
2013-01-19 09:28:00,41.2,33.2,29.96,SSW,201,18.7,20.9,73,0.00,,,0.00,200.00,VWS V14.01,2013-01-19 15:28:00,
2013-01-19 09:29:00,41.3,33.3,29.97,SW,222,11.0,16.5,73,0.00,,,0.00,200.00,VWS V14.01,2013-01-19 15:29:00,
2013-01-19 09:32:00,41.6,33.6,29.97,SSW,212,5.5,16.5,73,0.00,,,0.00,206.00,VWS V14.01,2013-01-19 15:32:00,
2013-01-19 09:33:00,41.8,33.8,29.97,SSW,211,11.0,14.3,73,0.00,,,0.00,206.00,VWS V14.01,2013-01-19 15:33:00,
2013-01-19 09:34:00,41.9,33.5,29.97,SW,216,18.7,18.7,72,0.00,,,0.00,202.00,VWS V14.01,2013-01-19 15:34:00,
2013-01-19 09:37:00,42.1,33.7,29.96,South,185,7.7,11.0,72,0.00,,,0.00,209.00,VWS V14.01,2013-01-19 15:37:00,
2013-01-19 09:38:00,42.3,33.9,29.96,SSW,209,11.0,19.8,72,0.00,,,0.00,216.00,VWS V14.01,2013-01-19 15:38:00,
2013-01-19 09:39:00,42.4,33.7,29.96,South,189,6.6,9.9,71,0.00,,,0.00,220.00,VWS V14.01,2013-01-19 15:39:00,
2013-01-19 09:41:00,42.6,33.9,29.96,South,189,15.4,19.8,71,0.00,,,0.00,227.00,VWS V14.01,2013-01-19 15:41:00,
2013-01-19 09:43:00,42.7,34.0,29.96,South,175,22.0,22.0,71,0.00,,,0.00,230.00,VWS V14.01,2013-01-19 15:43:00,
2013-01-19 09:44:00,42.8,34.1,29.97,South,175,8.8,18.7,71,0.00,,,0.00,230.00,VWS V14.01,2013-01-19 15:44:00,
2013-01-19 09:45:00,42.9,34.2,29.97,SSW,192,7.7,15.4,71,0.00,,,0.00,216.00,VWS V14.01,2013-01-19 15:45:00,
2013-01-19 09:46:00,43.1,34.3,29.96,West,268,18.7,23.1,71,0.00,,,0.00,216.00,VWS V14.01,2013-01-19 15:46:00,
2013-01-19 09:48:00,43.4,34.3,29.97,WSW,239,12.1,13.2,70,0.00,,,0.00,237.00,VWS V14.01,2013-01-19 15:48:00,
2013-01-19 09:49:00,43.5,34.4,29.97,WSW,256,12.1,19.8,70,0.00,,,0.00,241.00,VWS V14.01,2013-01-19 15:49:00,
2013-01-19 09:50:00,43.6,34.5,29.97,WSW,256,11.0,19.8,70,0.00,,,0.00,246.00,VWS V14.01,2013-01-19 15:50:00,
2013-01-19 09:51:00,43.8,34.7,29.97,WSW,237,18.7,18.7,70,0.00,,,0.00,250.00,VWS V14.01,2013-01-19 15:51:00,
2013-01-19 09:53:00,44.1,34.6,29.96,SW,216,17.6,17.6,69,0.00,,,0.00,248.00,VWS V14.01,2013-01-19 15:53:00,
2013-01-19 09:54:00,44.1,34.6,29.96,SW,226,16.5,16.5,69,0.00,,,0.00,250.00,VWS V14.01,2013-01-19 15:54:00,
2013-01-19 09:55:00,44.2,34.7,29.96,WSW,254,16.5,25.3,69,0.00,,,0.00,244.00,VWS V14.01,2013-01-19 15:55:00,
2013-01-19 09:58:00,44.3,34.4,29.97,SW,234,20.9,24.2,68,0.00,,,0.00,236.00,VWS V14.01,2013-01-19 15:58:00,
2013-01-19 09:59:00,44.3,34.4,29.96,WSW,243,7.7,12.1,68,0.00,,,0.00,234.00,VWS V14.01,2013-01-19 15:59:00,
2013-01-19 10:00:00,44.4,34.5,29.96,West,268,12.1,14.3,68,0.00,,,0.00,232.00,VWS V14.01,2013-01-19 16:00:00,
2013-01-19 10:04:00,44.8,34.5,29.96,SW,224,18.7,23.1,67,0.00,,,0.00,237.00,VWS V14.01,2013-01-19 16:04:00,
2013-01-19 10:06:00,44.9,34.6,29.96,SW,218,16.5,22.0,67,0.00,,,0.00,221.00,VWS V14.01,2013-01-19 16:06:00,
2013-01-19 10:09:00,45.0,34.7,29.95,SW,215,17.6,17.6,67,0.00,,,0.00,218.00,VWS V14.01,2013-01-19 16:09:00,
2013-01-19 10:11:00,45.0,34.7,29.95,SW,234,14.3,16.5,67,0.00,,,0.00,230.00,VWS V14.01,2013-01-19 16:11:00,
2013-01-19 10:12:00,44.9,34.6,29.95,WSW,245,18.7,20.9,67,0.00,,,0.00,237.00,VWS V14.01,2013-01-19 16:12:00,
2013-01-19 10:15:00,44.8,34.5,29.95,SW,225,13.2,23.1,67,0.00,,,0.00,258.00,VWS V14.01,2013-01-19 16:15:00,
2013-01-19 10:16:00,44.8,34.5,29.95,WSW,238,14.3,14.3,67,0.00,,,0.00,255.00,VWS V14.01,2013-01-19 16:16:00,
2013-01-19 10:17:00,44.8,34.5,29.95,SSW,213,14.3,20.9,67,0.00,,,0.00,251.00,VWS V14.01,2013-01-19 16:17:00,
2013-01-19 10:20:00,45.0,35.1,29.95,WSW,242,11.0,15.4,68,0.00,,,0.00,236.00,VWS V14.01,2013-01-19 16:20:00,
2013-01-19 10:22:00,45.1,34.8,29.94,SSW,195,5.5,11.0,67,0.00,,,0.00,225.00,VWS V14.01,2013-01-19 16:22:00,
2013-01-19 10:23:00,45.2,34.9,29.94,WSW,239,17.6,17.6,67,0.00,,,0.00,223.00,VWS V14.01,2013-01-19 16:23:00,
2013-01-19 10:25:00,45.4,35.1,29.94,SSW,206,9.9,23.1,67,0.00,,,0.00,216.00,VWS V14.01,2013-01-19 16:25:00,
2013-01-19 10:27:00,45.4,35.1,29.94,SW,223,13.2,22.0,67,0.00,,,0.00,213.00,VWS V14.01,2013-01-19 16:27:00,
2013-01-19 10:28:00,45.5,34.8,29.94,WSW,241,15.4,17.6,66,0.00,,,0.00,216.00,VWS V14.01,2013-01-19 16:28:00,
2013-01-19 10:29:00,45.6,35.3,29.94,WSW,240,24.2,24.2,67,0.00,,,0.00,216.00,VWS V14.01,2013-01-19 16:29:00,
2013-01-19 10:31:00,45.8,35.5,29.94,SW,222,15.4,24.2,67,0.00,,,0.00,213.00,VWS V14.01,2013-01-19 16:31:00,
2013-01-19 10:32:00,45.9,35.2,29.94,SSW,202,11.0,16.5,66,0.00,,,0.00,214.00,VWS V14.01,2013-01-19 16:32:00,
2013-01-19 10:33:00,46.0,35.3,29.94,SSW,206,14.3,20.9,66,0.00,,,0.00,220.00,VWS V14.01,2013-01-19 16:33:00,
2013-01-19 10:34:00,46.1,35.4,29.94,SW,225,19.8,19.8,66,0.00,,,0.00,213.00,VWS V14.01,2013-01-19 16:34:00,
2013-01-19 10:37:00,46.0,34.9,29.94,SW,231,19.8,20.9,65,0.00,,,0.00,216.00,VWS V14.01,2013-01-19 16:37:00,
2013-01-19 10:38:00,45.9,35.2,29.94,West,279,18.7,20.9,66,0.00,,,0.00,218.00,VWS V14.01,2013-01-19 16:38:00,
2013-01-19 10:41:00,45.8,35.1,29.94,WSW,252,19.8,24.2,66,0.00,,,0.00,225.00,VWS V14.01,2013-01-19 16:41:00,
2013-01-19 10:42:00,45.8,35.1,29.94,West,264,13.2,18.7,66,0.00,,,0.00,221.00,VWS V14.01,2013-01-19 16:42:00,
2013-01-19 10:43:00,45.8,35.1,29.93,WSW,256,9.9,13.2,66,0.00,,,0.00,223.00,VWS V14.01,2013-01-19 16:43:00,
2013-01-19 10:44:00,45.8,35.1,29.93,West,272,25.3,25.3,66,0.00,,,0.00,232.00,VWS V14.01,2013-01-19 16:44:00,
2013-01-19 10:46:00,45.8,35.1,29.93,South,183,13.2,22.0,66,0.00,,,0.00,244.00,VWS V14.01,2013-01-19 16:46:00,
2013-01-19 10:48:00,45.8,35.1,29.93,WSW,251,13.2,23.1,66,0.00,,,0.00,264.00,VWS V14.01,2013-01-19 16:48:00,
2013-01-19 10:49:00,45.8,35.1,29.93,SW,233,11.0,23.1,66,0.00,,,0.00,264.00,VWS V14.01,2013-01-19 16:49:00,
2013-01-19 10:51:00,46.0,35.3,29.92,WSW,253,20.9,20.9,66,0.00,,,0.00,302.00,VWS V14.01,2013-01-19 16:51:00,
2013-01-19 10:54:00,46.4,35.7,29.92,WSW,258,15.4,24.2,66,0.00,,,0.00,316.00,VWS V14.01,2013-01-19 16:54:00,
2013-01-19 10:55:00,46.5,35.8,29.92,WSW,242,19.8,19.8,66,0.00,,,0.00,316.00,VWS V14.01,2013-01-19 16:55:00,
2013-01-19 10:57:00,46.5,35.4,29.92,SW,224,20.9,24.2,65,0.00,,,0.00,306.00,VWS V14.01,2013-01-19 16:57:00,
2013-01-19 11:00:00,46.4,35.3,29.93,WSW,239,16.5,26.4,65,0.00,,,0.00,304.00,VWS V14.01,2013-01-19 17:00:00,
2013-01-19 11:02:00,46.2,35.1,29.92,WSW,249,20.9,20.9,65,0.00,,,0.00,306.00,VWS V14.01,2013-01-19 17:02:00,
2013-01-19 11:05:00,46.1,35.0,29.92,WSW,238,19.8,23.1,65,0.00,,,0.00,285.00,VWS V14.01,2013-01-19 17:05:00,
2013-01-19 11:06:00,46.1,35.0,29.92,SSW,202,14.3,20.9,65,0.00,,,0.00,265.00,VWS V14.01,2013-01-19 17:06:00,
2013-01-19 11:08:00,46.1,35.0,29.91,WSW,247,24.2,28.6,65,0.00,,,0.00,260.00,VWS V14.01,2013-01-19 17:08:00,
2013-01-19 11:11:00,46.2,35.5,29.91,SSW,194,9.9,26.4,66,0.00,,,0.00,369.00,VWS V14.01,2013-01-19 17:11:00,
2013-01-19 11:13:00,46.3,35.6,29.91,WSW,255,23.1,24.2,66,0.00,,,0.00,272.00,VWS V14.01,2013-01-19 17:13:00,
2013-01-19 11:18:00,46.2,35.5,29.91,WSW,255,13.2,24.2,66,0.00,,,0.00,237.00,VWS V14.01,2013-01-19 17:18:00,
2013-01-19 11:23:00,46.1,35.4,29.90,SW,227,19.8,22.0,66,0.00,,,0.00,248.00,VWS V14.01,2013-01-19 17:23:00,
2013-01-19 11:28:00,46.2,35.5,29.90,WSW,245,14.3,14.3,66,0.00,,,0.00,211.00,VWS V14.01,2013-01-19 17:28:00,
2013-01-19 11:29:00,46.2,35.5,29.90,West,264,17.6,20.9,66,0.00,,,0.00,202.00,VWS V14.01,2013-01-19 17:29:00,
2013-01-19 11:33:00,46.1,35.4,29.90,WSW,251,14.3,22.0,66,0.00,,,0.00,234.00,VWS V14.01,2013-01-19 17:33:00,
2013-01-19 11:34:00,46.1,35.4,29.90,West,260,15.4,16.5,66,0.00,,,0.00,287.00,VWS V14.01,2013-01-19 17:34:00,
2013-01-19 11:38:00,46.6,36.2,29.89,WSW,240,18.7,18.7,67,0.00,,,0.00,325.00,VWS V14.01,2013-01-19 17:38:00,
2013-01-19 11:39:00,46.7,36.3,29.89,WSW,246,14.3,19.8,67,0.00,,,0.00,329.00,VWS V14.01,2013-01-19 17:39:00,
2013-01-19 11:43:00,46.9,36.2,29.89,SW,216,15.4,16.5,66,0.00,,,0.00,239.00,VWS V14.01,2013-01-19 17:43:00,
2013-01-19 11:44:00,46.9,36.2,29.89,SSW,198,17.6,17.6,66,0.00,,,0.00,220.00,VWS V14.01,2013-01-19 17:44:00,
2013-01-19 11:48:00,46.9,36.2,29.89,WSW,254,11.0,18.7,66,0.00,,,0.00,199.00,VWS V14.01,2013-01-19 17:48:00,
2013-01-19 11:50:00,46.8,36.0,29.88,WSW,238,18.7,22.0,66,0.00,,,0.00,195.00,VWS V14.01,2013-01-19 17:50:00,
2013-01-19 11:54:00,46.5,35.8,29.88,SW,215,7.7,7.7,66,0.00,,,0.00,183.00,VWS V14.01,2013-01-19 17:54:00,
2013-01-19 11:55:00,46.5,36.2,29.88,WSW,255,11.0,11.0,67,0.00,,,0.00,199.00,VWS V14.01,2013-01-19 17:55:00,
2013-01-19 11:59:00,46.5,36.2,29.88,SW,222,12.1,16.5,67,0.00,,,0.00,204.00,VWS V14.01,2013-01-19 17:59:00,
2013-01-19 12:00:00,46.5,36.2,29.88,WSW,240,9.9,9.9,67,0.00,,,0.00,218.00,VWS V14.01,2013-01-19 18:00:00,
2013-01-19 12:04:00,46.9,36.2,29.88,WSW,258,18.7,23.1,66,0.00,,,0.00,325.00,VWS V14.01,2013-01-19 18:04:00,
2013-01-19 12:06:00,46.9,36.2,29.87,WSW,253,18.7,18.7,66,0.00,,,0.00,380.00,VWS V14.01,2013-01-19 18:06:00,
2013-01-19 12:10:00,47.2,36.4,29.87,WSW,238,22.0,22.0,66,0.00,,,0.00,253.00,VWS V14.01,2013-01-19 18:10:00,
2013-01-19 12:11:00,47.2,36.0,29.87,WSW,252,11.0,23.1,65,0.00,,,0.00,283.00,VWS V14.01,2013-01-19 18:11:00,
2013-01-19 12:16:00,47.4,36.6,29.86,West,272,12.1,17.6,66,0.00,,,0.00,341.00,VWS V14.01,2013-01-19 18:16:00,
2013-01-19 12:21:00,47.4,36.2,29.86,WSW,241,14.3,19.8,65,0.00,,,0.00,297.00,VWS V14.01,2013-01-19 18:21:00,
2013-01-19 12:22:00,47.3,36.2,29.86,WSW,247,8.8,16.5,65,0.00,,,0.00,294.00,VWS V14.01,2013-01-19 18:22:00,
2013-01-19 12:27:00,47.3,36.2,29.86,SW,226,12.1,20.9,65,0.00,,,0.00,264.00,VWS V14.01,2013-01-19 18:27:00,
2013-01-19 12:32:00,47.2,36.4,29.86,WSW,253,13.2,14.3,66,0.00,,,0.00,248.00,VWS V14.01,2013-01-19 18:32:00,
2013-01-19 12:38:00,47.1,36.3,29.85,SW,219,13.2,13.2,66,0.00,,,0.00,220.00,VWS V14.01,2013-01-19 18:38:00,
2013-01-19 12:43:00,47.0,36.6,29.85,SW,215,9.9,11.0,67,0.00,,,0.00,200.00,VWS V14.01,2013-01-19 18:43:00,
2013-01-19 12:48:00,46.8,36.4,29.85,WSW,248,9.9,12.1,67,0.00,,,0.00,183.00,VWS V14.01,2013-01-19 18:48:00,
2013-01-19 12:49:00,46.7,36.3,29.85,WSW,241,24.2,24.2,67,0.00,,,0.00,179.00,VWS V14.01,2013-01-19 18:49:00,
2013-01-19 12:53:00,46.7,36.3,29.85,SW,226,11.0,15.4,67,0.00,,,0.00,151.00,VWS V14.01,2013-01-19 18:53:00,
2013-01-19 12:54:00,46.7,36.3,29.85,WSW,250,15.4,18.7,67,0.00,,,0.00,148.00,VWS V14.01,2013-01-19 18:54:00,
2013-01-19 12:59:00,46.6,36.2,29.85,South,191,7.7,18.7,67,0.00,,,0.00,128.00,VWS V14.01,2013-01-19 18:59:00,
2013-01-19 13:04:00,46.5,36.5,29.85,SW,235,13.2,18.7,68,0.00,,,0.00,128.00,VWS V14.01,2013-01-19 19:04:00,
2013-01-19 13:09:00,46.4,36.4,29.85,SW,235,11.0,11.0,68,0.00,,,0.00,139.00,VWS V14.01,2013-01-19 19:09:00,
2013-01-19 13:10:00,46.5,36.9,29.85,West,265,7.7,11.0,69,0.00,,,0.00,139.00,VWS V14.01,2013-01-19 19:10:00,
2013-01-19 13:15:00,46.6,37.0,29.85,WSW,252,9.9,9.9,69,0.00,,,0.00,158.00,VWS V14.01,2013-01-19 19:15:00,
2013-01-19 13:20:00,46.8,37.2,29.84,WSW,240,11.0,11.0,69,0.00,,,0.00,179.00,VWS V14.01,2013-01-19 19:20:00,
2013-01-19 13:21:00,46.8,37.2,29.84,WSW,255,13.2,14.3,69,0.00,,,0.00,179.00,VWS V14.01,2013-01-19 19:21:00,
2013-01-19 13:26:00,47.0,37.4,29.84,SW,234,13.2,16.5,69,0.00,,,0.00,193.00,VWS V14.01,2013-01-19 19:26:00,
2013-01-19 13:32:00,47.2,37.2,29.84,WSW,258,11.0,13.2,68,0.00,,,0.00,190.00,VWS V14.01,2013-01-19 19:32:00,
2013-01-19 13:37:00,47.3,37.3,29.84,WSW,253,9.9,14.3,68,0.00,,,0.00,183.00,VWS V14.01,2013-01-19 19:37:00,
2013-01-19 13:38:00,47.3,37.3,29.84,WSW,237,13.2,13.2,68,0.00,,,0.00,183.00,VWS V14.01,2013-01-19 19:38:00,
2013-01-19 13:42:00,47.4,37.4,29.84,WSW,239,9.9,15.4,68,0.00,,,0.00,179.00,VWS V14.01,2013-01-19 19:42:00,
2013-01-19 13:43:00,47.4,37.4,29.84,SSW,201,9.9,17.6,68,0.00,,,0.00,179.00,VWS V14.01,2013-01-19 19:43:00,
2013-01-19 13:47:00,47.4,37.4,29.83,WSW,256,12.1,20.9,68,0.00,,,0.00,158.00,VWS V14.01,2013-01-19 19:47:00,
2013-01-19 13:48:00,47.4,37.4,29.83,WSW,258,15.4,20.9,68,0.00,,,0.00,158.00,VWS V14.01,2013-01-19 19:48:00,
2013-01-19 13:53:00,47.3,37.3,29.84,SW,233,13.2,13.2,68,0.00,,,0.00,139.00,VWS V14.01,2013-01-19 19:53:00,
2013-01-19 13:58:00,47.2,37.6,29.83,WSW,242,9.9,16.5,69,0.00,,,0.00,111.00,VWS V14.01,2013-01-19 19:58:00,
2013-01-19 14:03:00,47.2,37.6,29.83,WSW,243,13.2,13.2,69,0.00,,,0.00,109.00,VWS V14.01,2013-01-19 20:03:00,
2013-01-19 14:04:00,47.2,37.6,29.83,WSW,238,9.9,17.6,69,0.00,,,0.00,107.00,VWS V14.01,2013-01-19 20:04:00,
2013-01-19 14:09:00,47.1,37.5,29.82,SW,219,12.1,12.1,69,0.00,,,0.00,120.00,VWS V14.01,2013-01-19 20:09:00,
2013-01-19 14:10:00,47.1,37.5,29.82,WSW,243,6.6,14.3,69,0.00,,,0.00,127.00,VWS V14.01,2013-01-19 20:10:00,
2013-01-19 14:15:00,47.1,37.5,29.82,West,276,16.5,17.6,69,0.00,,,0.00,125.00,VWS V14.01,2013-01-19 20:15:00,
2013-01-19 14:17:00,47.2,37.6,29.83,WSW,246,12.1,15.4,69,0.00,,,0.00,125.00,VWS V14.01,2013-01-19 20:17:00,
2013-01-19 14:22:00,47.2,37.6,29.82,SSW,193,7.7,12.1,69,0.00,,,0.00,118.00,VWS V14.01,2013-01-19 20:22:00,
2013-01-19 14:23:00,47.2,37.6,29.82,WSW,253,11.0,14.3,69,0.00,,,0.00,120.00,VWS V14.01,2013-01-19 20:23:00,
2013-01-19 14:27:00,47.2,37.6,29.82,SW,218,11.0,12.1,69,0.00,,,0.00,135.00,VWS V14.01,2013-01-19 20:27:00,
2013-01-19 14:28:00,47.2,37.6,29.82,SW,227,7.7,8.8,69,0.00,,,0.00,137.00,VWS V14.01,2013-01-19 20:28:00,
2013-01-19 14:32:00,47.3,37.7,29.81,South,183,12.1,16.5,69,0.00,,,0.00,148.00,VWS V14.01,2013-01-19 20:32:00,
2013-01-19 14:33:00,47.3,38.0,29.81,SSW,207,12.1,17.6,70,0.00,,,0.00,151.00,VWS V14.01,2013-01-19 20:33:00,
2013-01-19 14:37:00,47.4,38.1,29.82,South,187,4.4,8.8,70,0.00,,,0.00,251.00,VWS V14.01,2013-01-19 20:37:00,
2013-01-19 14:38:00,47.4,38.1,29.82,WSW,252,11.0,11.0,70,0.00,,,0.00,264.00,VWS V14.01,2013-01-19 20:38:00,
2013-01-19 14:43:00,47.7,38.0,29.83,SSW,210,9.9,14.3,69,0.00,,,0.00,127.00,VWS V14.01,2013-01-19 20:43:00,
2013-01-19 14:48:00,48.0,38.3,29.82,West,265,9.9,12.1,69,0.00,,,0.00,174.00,VWS V14.01,2013-01-19 20:48:00,
2013-01-19 14:53:00,48.5,38.4,29.82,WSW,253,19.8,19.8,68,0.00,,,0.00,141.00,VWS V14.01,2013-01-19 20:53:00,
2013-01-19 14:55:00,48.7,38.6,29.82,SSW,199,7.7,12.1,68,0.00,,,0.00,123.00,VWS V14.01,2013-01-19 20:55:00,
2013-01-19 14:59:00,48.8,38.3,29.82,WSW,246,7.7,12.1,67,0.00,,,0.00,118.00,VWS V14.01,2013-01-19 20:59:00,
2013-01-19 15:01:00,48.9,38.8,29.82,WSW,239,14.3,14.3,68,0.00,,,0.00,86.00,VWS V14.01,2013-01-19 21:01:00,
2013-01-19 15:04:00,48.9,38.8,29.82,SW,225,7.7,13.2,68,0.00,,,0.00,90.00,VWS V14.01,2013-01-19 21:04:00,
2013-01-19 15:07:00,48.8,38.3,29.82,WSW,252,15.4,17.6,67,0.00,,,0.00,83.00,VWS V14.01,2013-01-19 21:07:00,
2013-01-19 15:09:00,48.7,38.6,29.82,WSW,238,12.1,17.6,68,0.00,,,0.00,86.00,VWS V14.01,2013-01-19 21:09:00,
2013-01-19 15:12:00,48.6,38.5,29.82,SW,233,15.4,15.4,68,0.00,,,0.00,81.00,VWS V14.01,2013-01-19 21:12:00,
2013-01-19 15:14:00,48.6,38.9,29.81,WSW,250,17.6,18.7,69,0.00,,,0.00,76.00,VWS V14.01,2013-01-19 21:14:00,
2013-01-19 15:17:00,48.5,38.8,29.81,SSW,200,14.3,14.3,69,0.00,,,0.00,46.00,VWS V14.01,2013-01-19 21:17:00,
2013-01-19 15:19:00,48.5,38.8,29.81,WSW,242,12.1,13.2,69,0.00,,,0.00,67.00,VWS V14.01,2013-01-19 21:19:00,
2013-01-19 15:22:00,48.5,38.8,29.81,SW,226,7.7,14.3,69,0.00,,,0.00,54.00,VWS V14.01,2013-01-19 21:22:00,
2013-01-19 15:25:00,48.5,38.8,29.81,South,190,13.2,14.3,69,0.00,,,0.00,67.00,VWS V14.01,2013-01-19 21:25:00,
2013-01-19 15:27:00,48.5,38.8,29.81,SW,230,9.9,15.4,69,0.00,,,0.00,84.00,VWS V14.01,2013-01-19 21:27:00,
2013-01-19 15:30:00,48.6,38.9,29.81,SW,223,7.7,8.8,69,0.00,,,0.00,90.00,VWS V14.01,2013-01-19 21:30:00,
2013-01-19 15:33:00,48.7,39.0,29.81,SW,235,6.6,20.9,69,0.00,,,0.00,70.00,VWS V14.01,2013-01-19 21:33:00,
2013-01-19 15:35:00,48.7,39.0,29.81,SW,224,16.5,18.7,69,0.00,,,0.00,60.00,VWS V14.01,2013-01-19 21:35:00,
2013-01-19 15:38:00,48.6,38.9,29.81,West,262,13.2,13.2,69,0.00,,,0.00,56.00,VWS V14.01,2013-01-19 21:38:00,
2013-01-19 15:42:00,48.6,39.3,29.81,SW,233,8.8,18.7,70,0.00,,,0.00,40.00,VWS V14.01,2013-01-19 21:42:00,
2013-01-19 15:43:00,48.5,39.2,29.81,WSW,247,9.9,12.1,70,0.00,,,0.00,39.00,VWS V14.01,2013-01-19 21:43:00,
2013-01-19 15:47:00,48.5,39.2,29.81,WSW,247,16.5,16.5,70,0.00,,,0.00,47.00,VWS V14.01,2013-01-19 21:47:00,
2013-01-19 15:49:00,48.5,39.2,29.82,SW,218,11.0,14.3,70,0.00,,,0.00,53.00,VWS V14.01,2013-01-19 21:49:00,
2013-01-19 15:56:00,48.3,39.3,29.82,WSW,244,13.2,15.4,71,0.00,,,0.00,30.00,VWS V14.01,2013-01-19 21:56:00,
2013-01-19 15:58:00,48.3,39.3,29.82,SW,222,8.8,8.8,71,0.00,,,0.00,28.00,VWS V14.01,2013-01-19 21:58:00,
2013-01-19 16:02:00,48.2,39.2,29.81,WSW,253,6.6,9.9,71,0.00,,,0.00,25.00,VWS V14.01,2013-01-19 22:02:00,
2013-01-19 16:03:00,48.2,39.2,29.81,West,269,7.7,8.8,71,0.00,,,0.00,25.00,VWS V14.01,2013-01-19 22:03:00,
2013-01-19 16:08:00,48.0,39.4,29.81,WSW,241,13.2,14.3,72,0.00,,,0.00,23.00,VWS V14.01,2013-01-19 22:08:00,
2013-01-19 16:13:00,47.9,39.3,29.82,SW,229,13.2,14.3,72,0.00,,,0.00,33.00,VWS V14.01,2013-01-19 22:13:00,
2013-01-19 16:14:00,47.9,39.3,29.81,West,262,11.0,15.4,72,0.00,,,0.00,30.00,VWS V14.01,2013-01-19 22:14:00,
2013-01-19 16:18:00,47.7,39.5,29.81,SW,235,15.4,15.4,73,0.00,,,0.00,19.00,VWS V14.01,2013-01-19 22:18:00,
2013-01-19 16:19:00,47.7,39.5,29.81,WSW,251,9.9,15.4,73,0.00,,,0.00,19.00,VWS V14.01,2013-01-19 22:19:00,
2013-01-19 16:24:00,47.5,39.3,29.82,WSW,249,11.0,11.0,73,0.00,,,0.00,18.00,VWS V14.01,2013-01-19 22:24:00,
2013-01-19 16:29:00,47.3,39.1,29.82,WSW,249,12.1,14.3,73,0.00,,,0.00,14.00,VWS V14.01,2013-01-19 22:29:00,
2013-01-19 16:35:00,46.9,38.7,29.82,West,263,12.1,12.1,73,0.00,,,0.00,12.00,VWS V14.01,2013-01-19 22:35:00,
2013-01-19 16:40:00,46.7,38.5,29.82,WSW,248,9.9,12.1,73,0.00,,,0.00,11.00,VWS V14.01,2013-01-19 22:40:00,
2013-01-19 16:45:00,46.6,38.8,29.82,WSW,258,6.6,13.2,74,0.00,,,0.00,7.00,VWS V14.01,2013-01-19 22:45:00,
2013-01-19 16:47:00,46.5,38.7,29.82,WSW,248,8.8,15.4,74,0.00,,,0.00,7.00,VWS V14.01,2013-01-19 22:47:00,
2013-01-19 16:50:00,46.3,38.5,29.83,SW,233,14.3,14.3,74,0.00,,,0.00,5.00,VWS V14.01,2013-01-19 22:50:00,
2013-01-19 16:52:00,46.1,38.3,29.82,WSW,245,11.0,13.2,74,0.00,,,0.00,5.00,VWS V14.01,2013-01-19 22:52:00,
2013-01-19 16:55:00,45.9,38.4,29.83,WSW,249,7.7,11.0,75,0.00,,,0.00,0.00,VWS V14.01,2013-01-19 22:55:00,
2013-01-19 16:58:00,45.6,38.2,29.83,WSW,254,12.1,13.2,75,0.00,,,0.00,0.00,VWS V14.01,2013-01-19 22:58:00,
2013-01-19 17:00:00,45.5,38.0,29.83,West,275,14.3,14.3,75,0.00,,,0.00,0.00,VWS V14.01,2013-01-19 23:00:00,
2013-01-19 17:04:00,45.4,38.0,29.83,WSW,251,6.6,13.2,75,0.00,,,0.00,0.00,VWS V14.01,2013-01-19 23:04:00,
2013-01-19 17:08:00,45.1,38.0,29.83,WSW,246,13.2,17.6,76,0.00,,,0.00,0.00,VWS V14.01,2013-01-19 23:08:00,
2013-01-19 17:09:00,45.1,38.0,29.83,WSW,248,11.0,13.2,76,0.00,,,0.00,0.00,VWS V14.01,2013-01-19 23:09:00,
2013-01-19 17:13:00,44.9,37.8,29.83,WSW,237,8.8,11.0,76,0.00,,,0.00,0.00,VWS V14.01,2013-01-19 23:13:00,
2013-01-19 17:14:00,44.8,37.7,29.83,WSW,237,8.8,11.0,76,0.00,,,0.00,0.00,VWS V14.01,2013-01-19 23:14:00,
2013-01-19 17:18:00,44.6,37.5,29.83,WSW,248,8.8,9.9,76,0.00,,,0.00,0.00,VWS V14.01,2013-01-19 23:18:00,
2013-01-19 17:19:00,44.5,37.8,29.83,SW,233,8.8,11.0,77,0.00,,,0.00,0.00,VWS V14.01,2013-01-19 23:19:00,
2013-01-19 17:23:00,44.2,37.5,29.83,WSW,238,6.6,7.7,77,0.00,,,0.00,0.00,VWS V14.01,2013-01-19 23:23:00,
2013-01-19 17:25:00,43.9,37.2,29.83,SSW,212,7.7,9.9,77,0.00,,,0.00,0.00,VWS V14.01,2013-01-19 23:25:00,
2013-01-19 17:28:00,43.7,37.3,29.84,WSW,246,6.6,7.7,78,0.00,,,0.00,0.00,VWS V14.01,2013-01-19 23:28:00,
2013-01-19 17:30:00,43.5,37.1,29.84,WSW,247,11.0,12.1,78,0.00,,,0.00,0.00,VWS V14.01,2013-01-19 23:30:00,
2013-01-19 17:33:00,43.4,37.0,29.84,WSW,254,8.8,8.8,78,0.00,,,0.00,0.00,VWS V14.01,2013-01-19 23:33:00,
2013-01-19 17:37:00,43.2,37.1,29.84,WSW,249,8.8,12.1,79,0.00,,,0.00,0.00,VWS V14.01,2013-01-19 23:37:00,
2013-01-19 17:39:00,43.1,37.0,29.84,WSW,245,8.8,11.0,79,0.00,,,0.00,0.00,VWS V14.01,2013-01-19 23:39:00,
2013-01-19 17:42:00,42.9,36.8,29.85,WSW,256,7.7,13.2,79,0.00,,,0.00,0.00,VWS V14.01,2013-01-19 23:42:00,
2013-01-19 17:44:00,42.8,36.8,29.84,West,259,11.0,11.0,79,0.00,,,0.00,0.00,VWS V14.01,2013-01-19 23:44:00,
2013-01-19 17:47:00,42.6,36.9,29.84,SW,236,8.8,8.8,80,0.00,,,0.00,0.00,VWS V14.01,2013-01-19 23:47:00,
2013-01-19 17:50:00,42.5,36.8,29.84,WSW,258,6.6,8.8,80,0.00,,,0.00,0.00,VWS V14.01,2013-01-19 23:50:00,
2013-01-19 17:52:00,42.5,36.8,29.84,SW,226,13.2,13.2,80,0.00,,,0.00,0.00,VWS V14.01,2013-01-19 23:52:00,
2013-01-19 17:55:00,42.3,36.6,29.84,SW,228,8.8,11.0,80,0.00,,,0.00,0.00,VWS V14.01,2013-01-19 23:55:00,
2013-01-19 17:58:00,42.2,36.8,29.84,WSW,253,6.6,12.1,81,0.00,,,0.00,0.00,VWS V14.01,2013-01-19 23:58:00,
2013-01-19 18:00:00,42.2,36.8,29.84,WSW,248,7.7,11.0,81,0.00,,,0.00,0.00,VWS V14.01,2013-01-20 00:00:00,
2013-01-19 18:03:00,42.2,36.8,29.85,SW,236,8.8,12.1,81,0.00,,,0.00,0.00,VWS V14.01,2013-01-20 00:03:00,
2013-01-19 18:05:00,42.2,36.8,29.84,WSW,255,11.0,13.2,81,0.00,,,0.00,0.00,VWS V14.01,2013-01-20 00:05:00,
2013-01-19 18:09:00,42.2,36.8,29.84,WSW,237,8.8,13.2,81,0.00,,,0.00,0.00,VWS V14.01,2013-01-20 00:09:00,
2013-01-19 18:11:00,42.3,36.9,29.84,West,261,5.5,8.8,81,0.00,,,0.00,0.00,VWS V14.01,2013-01-20 00:11:00,
2013-01-19 18:14:00,42.2,36.8,29.84,WSW,245,9.9,12.1,81,0.00,,,0.00,0.00,VWS V14.01,2013-01-20 00:14:00,
2013-01-19 18:16:00,42.2,36.8,29.84,WSW,253,6.6,11.0,81,0.00,,,0.00,0.00,VWS V14.01,2013-01-20 00:16:00,
2013-01-19 18:19:00,42.2,36.8,29.84,West,266,8.8,12.1,81,0.00,,,0.00,0.00,VWS V14.01,2013-01-20 00:19:00,
2013-01-19 18:22:00,42.2,36.8,29.84,WSW,239,11.0,11.0,81,0.00,,,0.00,0.00,VWS V14.01,2013-01-20 00:22:00,
2013-01-19 18:25:00,42.1,36.7,29.84,WSW,237,9.9,12.1,81,0.00,,,0.00,0.00,VWS V14.01,2013-01-20 00:25:00,
2013-01-19 18:27:00,42.1,36.7,29.84,WSW,250,7.7,12.1,81,0.00,,,0.00,0.00,VWS V14.01,2013-01-20 00:27:00,
2013-01-19 18:30:00,42.2,36.8,29.84,WSW,249,11.0,12.1,81,0.00,,,0.00,0.00,VWS V14.01,2013-01-20 00:30:00,
2013-01-19 18:32:00,42.2,36.8,29.84,West,262,8.8,11.0,81,0.00,,,0.00,0.00,VWS V14.01,2013-01-20 00:32:00,
2013-01-19 18:35:00,42.3,36.9,29.84,SSW,212,7.7,8.8,81,0.00,,,0.00,0.00,VWS V14.01,2013-01-20 00:35:00,
2013-01-19 18:37:00,42.3,36.9,29.84,SSW,208,9.9,9.9,81,0.00,,,0.00,0.00,VWS V14.01,2013-01-20 00:37:00,
2013-01-19 18:41:00,42.2,36.8,29.84,SSW,207,7.7,13.2,81,0.00,,,0.00,0.00,VWS V14.01,2013-01-20 00:41:00,
2013-01-19 18:43:00,42.1,36.7,29.84,WSW,246,9.9,12.1,81,0.00,,,0.00,0.00,VWS V14.01,2013-01-20 00:43:00,
2013-01-19 18:46:00,42.0,36.6,29.84,WSW,245,6.6,12.1,81,0.00,,,0.00,0.00,VWS V14.01,2013-01-20 00:46:00,
2013-01-19 18:48:00,41.9,36.5,29.84,SW,233,8.8,11.0,81,0.00,,,0.00,0.00,VWS V14.01,2013-01-20 00:48:00,
2013-01-19 18:51:00,41.7,36.3,29.84,WSW,255,11.0,13.2,81,0.00,,,0.00,0.00,VWS V14.01,2013-01-20 00:51:00,
2013-01-19 18:53:00,41.6,36.5,29.84,WSW,248,13.2,14.3,82,0.00,,,0.00,0.00,VWS V14.01,2013-01-20 00:53:00,
2013-01-19 18:56:00,41.5,36.4,29.84,West,274,9.9,12.1,82,0.00,,,0.00,0.00,VWS V14.01,2013-01-20 00:56:00,
2013-01-19 18:58:00,41.4,36.3,29.84,West,262,11.0,11.0,82,0.00,,,0.00,0.00,VWS V14.01,2013-01-20 00:58:00,
2013-01-19 19:02:00,41.4,36.3,29.84,SW,233,9.9,9.9,82,0.00,,,0.00,0.00,VWS V14.01,2013-01-20 01:02:00,
2013-01-19 19:03:00,41.5,36.4,29.84,SW,226,7.7,14.3,82,0.00,,,0.00,0.00,VWS V14.01,2013-01-20 01:03:00,
2013-01-19 19:07:00,41.5,36.4,29.84,WSW,245,17.6,17.6,82,0.00,,,0.00,0.00,VWS V14.01,2013-01-20 01:07:00,
2013-01-19 19:09:00,41.5,36.4,29.85,West,278,11.0,13.2,82,0.00,,,0.00,0.00,VWS V14.01,2013-01-20 01:09:00,
2013-01-19 19:12:00,41.7,36.6,29.85,WSW,258,9.9,12.1,82,0.00,,,0.00,0.00,VWS V14.01,2013-01-20 01:12:00,
2013-01-19 19:15:00,41.9,36.5,29.85,WSW,249,12.1,14.3,81,0.00,,,0.00,0.00,VWS V14.01,2013-01-20 01:15:00,
2013-01-19 19:17:00,42.0,36.6,29.85,WSW,253,4.4,13.2,81,0.00,,,0.00,0.00,VWS V14.01,2013-01-20 01:17:00,
2013-01-19 19:20:00,42.2,36.5,29.85,WNW,283,8.8,15.4,80,0.00,,,0.00,0.00,VWS V14.01,2013-01-20 01:20:00,
2013-01-19 19:22:00,42.4,36.7,29.85,WNW,288,16.5,16.5,80,0.00,,,0.00,0.00,VWS V14.01,2013-01-20 01:22:00,
2013-01-19 19:26:00,42.8,36.8,29.85,West,268,8.8,17.6,79,0.00,,,0.00,0.00,VWS V14.01,2013-01-20 01:26:00,
2013-01-19 19:27:00,42.9,36.8,29.85,West,268,11.0,15.4,79,0.00,,,0.00,0.00,VWS V14.01,2013-01-20 01:27:00,
2013-01-19 19:32:00,42.9,36.8,29.85,West,259,9.9,13.2,79,0.00,,,0.00,0.00,VWS V14.01,2013-01-20 01:32:00,
2013-01-19 19:37:00,42.8,36.4,29.85,West,276,14.3,14.3,78,0.00,,,0.00,0.00,VWS V14.01,2013-01-20 01:37:00,
2013-01-19 19:42:00,42.4,36.4,29.85,WNW,284,12.1,20.9,79,0.00,,,0.00,0.00,VWS V14.01,2013-01-20 01:42:00,
2013-01-19 19:43:00,42.4,36.4,29.85,WSW,249,14.3,14.3,79,0.00,,,0.00,0.00,VWS V14.01,2013-01-20 01:43:00,
2013-01-19 19:47:00,42.2,36.2,29.85,West,273,12.1,18.7,79,0.00,,,0.00,0.00,VWS V14.01,2013-01-20 01:47:00,
2013-01-19 19:48:00,42.1,36.1,29.85,West,268,16.5,16.5,79,0.00,,,0.00,0.00,VWS V14.01,2013-01-20 01:48:00,
2013-01-19 19:53:00,41.8,36.1,29.85,WSW,253,11.0,16.5,80,0.00,,,0.00,0.00,VWS V14.01,2013-01-20 01:53:00,
2013-01-19 19:54:00,41.8,35.8,29.85,WSW,252,16.5,16.5,79,0.00,,,0.00,0.00,VWS V14.01,2013-01-20 01:54:00,
2013-01-19 19:59:00,41.6,35.9,29.85,WNW,289,7.7,9.9,80,0.00,,,0.00,0.00,VWS V14.01,2013-01-20 01:59:00,
2013-01-19 20:04:00,41.5,35.8,29.85,West,267,8.8,14.3,80,0.00,,,0.00,0.00,VWS V14.01,2013-01-20 02:04:00,
2013-01-19 20:09:00,41.3,35.6,29.85,West,267,15.4,16.5,80,0.00,,,0.00,0.00,VWS V14.01,2013-01-20 02:09:00,
2013-01-19 20:10:00,41.3,35.6,29.85,West,263,12.1,16.5,80,0.00,,,0.00,0.00,VWS V14.01,2013-01-20 02:10:00,
2013-01-19 20:15:00,41.3,35.6,29.85,WNW,286,12.1,18.7,80,0.00,,,0.00,0.00,VWS V14.01,2013-01-20 02:15:00,
2013-01-19 20:20:00,41.3,35.3,29.85,West,260,15.4,15.4,79,0.00,,,0.00,0.00,VWS V14.01,2013-01-20 02:20:00,
2013-01-19 20:21:00,41.3,35.3,29.85,WNW,287,14.3,15.4,79,0.00,,,0.00,0.00,VWS V14.01,2013-01-20 02:21:00,
2013-01-19 20:26:00,41.3,35.3,29.85,WNW,291,12.1,17.6,79,0.00,,,0.00,0.00,VWS V14.01,2013-01-20 02:26:00,
2013-01-19 20:28:00,41.4,35.4,29.85,West,264,13.2,15.4,79,0.00,,,0.00,0.00,VWS V14.01,2013-01-20 02:28:00,
2013-01-19 20:32:00,41.3,35.3,29.86,West,264,11.0,14.3,79,0.00,,,0.00,0.00,VWS V14.01,2013-01-20 02:32:00,
2013-01-19 20:33:00,41.3,35.3,29.86,West,272,11.0,14.3,79,0.00,,,0.00,0.00,VWS V14.01,2013-01-20 02:33:00,
2013-01-19 20:37:00,41.3,35.3,29.86,West,275,14.3,17.6,79,0.00,,,0.00,0.00,VWS V14.01,2013-01-20 02:37:00,
2013-01-19 20:39:00,41.3,35.0,29.86,WNW,283,14.3,18.7,78,0.00,,,0.00,0.00,VWS V14.01,2013-01-20 02:39:00,
2013-01-19 20:43:00,41.5,35.2,29.86,SSW,201,16.5,19.8,78,0.00,,,0.00,0.00,VWS V14.01,2013-01-20 02:43:00,
2013-01-19 20:44:00,41.6,34.9,29.86,West,266,14.3,14.3,77,0.00,,,0.00,0.00,VWS V14.01,2013-01-20 02:44:00,
2013-01-19 20:49:00,41.6,34.9,29.86,West,259,14.3,17.6,77,0.00,,,0.00,0.00,VWS V14.01,2013-01-20 02:49:00,
2013-01-19 20:50:00,41.6,34.9,29.86,West,266,16.5,16.5,77,0.00,,,0.00,0.00,VWS V14.01,2013-01-20 02:50:00,
2013-01-19 20:54:00,41.5,34.8,29.86,WNW,286,15.4,22.0,77,0.00,,,0.00,0.00,VWS V14.01,2013-01-20 02:54:00,
2013-01-19 20:55:00,41.5,34.8,29.86,West,279,13.2,16.5,77,0.00,,,0.00,0.00,VWS V14.01,2013-01-20 02:55:00,
2013-01-19 20:59:00,41.9,34.6,29.86,West,278,16.5,30.8,75,0.00,,,0.00,0.00,VWS V14.01,2013-01-20 02:59:00,
2013-01-19 21:00:00,42.0,34.7,29.86,WNW,293,18.7,30.8,75,0.00,,,0.00,0.00,VWS V14.01,2013-01-20 03:00:00,
2013-01-19 21:05:00,42.7,34.7,29.87,NW,305,18.7,24.2,73,0.00,,,0.00,0.00,VWS V14.01,2013-01-20 03:05:00,
2013-01-19 21:10:00,42.6,34.2,29.87,NW,308,14.3,22.0,72,0.00,,,0.00,0.00,VWS V14.01,2013-01-20 03:10:00,
2013-01-19 21:11:00,42.6,34.2,29.87,West,260,14.3,22.0,72,0.00,,,0.00,0.00,VWS V14.01,2013-01-20 03:11:00,
2013-01-19 21:16:00,42.3,34.3,29.88,WNW,285,16.5,22.0,73,0.00,,,0.00,0.00,VWS V14.01,2013-01-20 03:16:00,
2013-01-19 21:21:00,42.1,34.1,29.88,West,277,27.5,27.5,73,0.00,,,0.00,0.00,VWS V14.01,2013-01-20 03:21:00,
2013-01-19 21:26:00,41.8,33.8,29.88,West,265,18.7,23.1,73,0.00,,,0.00,0.00,VWS V14.01,2013-01-20 03:26:00,
2013-01-19 21:27:00,41.8,33.8,29.88,WNW,301,15.4,20.9,73,0.00,,,0.00,0.00,VWS V14.01,2013-01-20 03:27:00,
2013-01-19 21:31:00,41.5,33.5,29.89,WNW,288,19.8,23.1,73,0.00,,,0.00,0.00,VWS V14.01,2013-01-20 03:31:00,
2013-01-19 21:32:00,41.5,33.5,29.89,WNW,286,18.7,23.1,73,0.00,,,0.00,0.00,VWS V14.01,2013-01-20 03:32:00,
2013-01-19 21:37:00,41.2,33.5,29.89,WNW,303,15.4,22.0,74,0.00,,,0.00,0.00,VWS V14.01,2013-01-20 03:37:00,
2013-01-19 21:42:00,41.0,33.4,29.89,West,261,14.3,22.0,74,0.00,,,0.00,0.00,VWS V14.01,2013-01-20 03:42:00,
2013-01-19 21:43:00,40.9,33.3,29.89,West,278,18.7,18.7,74,0.00,,,0.00,0.00,VWS V14.01,2013-01-20 03:43:00,
2013-01-19 21:47:00,40.8,33.2,29.89,WNW,286,19.8,24.2,74,0.00,,,0.00,0.00,VWS V14.01,2013-01-20 03:47:00,
2013-01-19 21:48:00,40.7,33.1,29.89,West,260,19.8,29.7,74,0.00,,,0.00,0.00,VWS V14.01,2013-01-20 03:48:00,
2013-01-19 21:52:00,40.6,33.0,29.89,West,268,17.6,17.6,74,0.00,,,0.00,0.00,VWS V14.01,2013-01-20 03:52:00,
2013-01-19 21:53:00,40.6,33.0,29.89,WNW,299,15.4,22.0,74,0.00,,,0.00,0.00,VWS V14.01,2013-01-20 03:53:00,
2013-01-19 21:58:00,40.4,32.4,29.89,NW,313,23.1,31.9,73,0.00,,,0.00,0.00,VWS V14.01,2013-01-20 03:58:00,
2013-01-19 22:03:00,40.2,31.9,29.89,WNW,287,15.4,25.3,72,0.00,,,0.00,0.00,VWS V14.01,2013-01-20 04:03:00,
2013-01-19 22:04:00,40.2,31.9,29.89,SW,230,19.8,25.3,72,0.00,,,0.00,0.00,VWS V14.01,2013-01-20 04:04:00,
2013-01-19 22:09:00,40.0,31.7,29.90,WSW,245,19.8,25.3,72,0.00,,,0.00,0.00,VWS V14.01,2013-01-20 04:09:00,
2013-01-19 22:14:00,39.7,31.1,29.90,West,279,20.9,27.5,71,0.00,,,0.00,0.00,VWS V14.01,2013-01-20 04:14:00,
2013-01-19 22:19:00,39.5,29.5,29.90,WNW,289,20.9,28.6,67,0.00,,,0.00,0.00,VWS V14.01,2013-01-20 04:19:00,
2013-01-19 22:20:00,39.5,29.5,29.90,WNW,283,26.4,33.0,67,0.00,,,0.00,0.00,VWS V14.01,2013-01-20 04:20:00,
2013-01-19 22:24:00,39.5,28.4,29.90,WNW,286,18.7,18.7,64,0.00,,,0.00,0.00,VWS V14.01,2013-01-20 04:24:00,
2013-01-19 22:25:00,39.5,28.4,29.90,WNW,289,19.8,25.3,64,0.00,,,0.00,0.00,VWS V14.01,2013-01-20 04:25:00,
2013-01-19 22:30:00,39.2,28.1,29.90,West,276,13.2,29.7,64,0.00,,,0.00,0.00,VWS V14.01,2013-01-20 04:30:00,
2013-01-19 22:35:00,39.0,27.1,29.90,WNW,283,14.3,25.3,62,0.00,,,0.00,0.00,VWS V14.01,2013-01-20 04:35:00,
2013-01-19 22:40:00,38.8,26.5,29.91,NW,318,12.1,35.2,61,0.00,,,0.00,0.00,VWS V14.01,2013-01-20 04:40:00,
2013-01-19 22:42:00,38.7,25.6,29.90,West,260,24.2,39.6,59,0.00,,,0.00,0.00,VWS V14.01,2013-01-20 04:42:00,
2013-01-19 22:45:00,38.6,25.5,29.91,WNW,282,19.8,34.1,59,0.00,,,0.00,0.00,VWS V14.01,2013-01-20 04:45:00,
2013-01-19 22:47:00,38.4,25.7,29.91,West,279,18.7,25.3,60,0.00,,,0.00,0.00,VWS V14.01,2013-01-20 04:47:00,
2013-01-19 22:50:00,38.2,26.0,29.91,WNW,295,17.6,31.9,61,0.00,,,0.00,0.00,VWS V14.01,2013-01-20 04:50:00,
2013-01-19 22:52:00,38.0,25.4,29.91,WSW,256,19.8,28.6,60,0.00,,,0.00,0.00,VWS V14.01,2013-01-20 04:52:00,
2013-01-19 22:55:00,37.9,25.7,29.91,West,275,25.3,25.3,61,0.00,,,0.00,0.00,VWS V14.01,2013-01-20 04:55:00,
2013-01-19 22:58:00,37.6,25.4,29.91,WNW,289,29.7,29.7,61,0.00,,,0.00,0.00,VWS V14.01,2013-01-20 04:58:00,
2013-01-19 23:00:00,37.4,24.4,29.92,West,280,22.0,34.1,59,0.00,,,0.00,0.00,VWS V14.01,2013-01-20 05:00:00,
2013-01-19 23:01:00,37.1,22.9,29.92,WNW,287,19.8,31.9,56,0.00,,,0.00,0.00,VWS V14.01,2013-01-20 05:01:00,
2013-01-19 23:03:00,36.8,22.2,29.92,WNW,296,23.1,39.6,55,0.00,,,0.00,0.00,VWS V14.01,2013-01-20 05:03:00,
2013-01-19 23:04:00,36.6,21.5,29.92,West,262,28.6,35.2,54,0.00,,,0.00,0.00,VWS V14.01,2013-01-20 05:04:00,
2013-01-19 23:05:00,36.3,21.3,29.92,West,269,23.1,35.2,54,0.00,,,0.00,0.00,VWS V14.01,2013-01-20 05:05:00,
2013-01-19 23:07:00,36.1,21.1,29.92,West,266,13.2,28.6,54,0.00,,,0.00,0.00,VWS V14.01,2013-01-20 05:07:00,
2013-01-19 23:08:00,35.9,20.9,29.92,West,261,19.8,26.4,54,0.00,,,0.00,0.00,VWS V14.01,2013-01-20 05:08:00,
2013-01-19 23:09:00,35.7,21.1,29.93,NW,308,16.5,22.0,55,0.00,,,0.00,0.00,VWS V14.01,2013-01-20 05:09:00,
2013-01-19 23:11:00,35.5,21.4,29.93,West,270,22.0,26.4,56,0.00,,,0.00,0.00,VWS V14.01,2013-01-20 05:11:00,
2013-01-19 23:12:00,35.3,21.6,29.93,West,266,9.9,19.8,57,0.00,,,0.00,0.00,VWS V14.01,2013-01-20 05:12:00,
2013-01-19 23:14:00,35.0,21.3,29.93,WNW,291,17.6,29.7,57,0.00,,,0.00,0.00,VWS V14.01,2013-01-20 05:14:00,
2013-01-19 23:16:00,34.8,22.0,29.93,WNW,302,20.9,33.0,59,0.00,,,0.00,0.00,VWS V14.01,2013-01-20 05:16:00,
2013-01-19 23:18:00,34.6,22.2,29.94,WNW,287,25.3,26.4,60,0.00,,,0.00,0.00,VWS V14.01,2013-01-20 05:18:00,
2013-01-19 23:19:00,34.5,22.1,29.94,West,272,18.7,20.9,60,0.00,,,0.00,0.00,VWS V14.01,2013-01-20 05:19:00,
2013-01-19 23:20:00,34.4,22.0,29.94,WNW,285,16.5,29.7,60,0.00,,,0.00,0.00,VWS V14.01,2013-01-20 05:20:00,
2013-01-19 23:23:00,34.1,21.3,29.94,WNW,301,26.4,34.1,59,0.00,,,0.00,0.00,VWS V14.01,2013-01-20 05:23:00,
2013-01-19 23:25:00,33.7,20.1,29.94,NW,306,29.7,36.3,57,0.00,,,0.00,0.00,VWS V14.01,2013-01-20 05:25:00,
2013-01-19 23:26:00,33.6,20.0,29.94,NW,309,13.2,28.6,57,0.00,,,0.00,0.00,VWS V14.01,2013-01-20 05:26:00,
2013-01-19 23:28:00,33.1,19.5,29.95,WNW,282,17.6,17.6,57,0.00,,,0.00,0.00,VWS V14.01,2013-01-20 05:28:00,
2013-01-19 23:29:00,33.0,19.9,29.95,WNW,293,14.3,29.7,58,0.00,,,0.00,0.00,VWS V14.01,2013-01-20 05:29:00,
2013-01-19 23:30:00,32.7,19.6,29.95,WNW,299,25.3,29.7,58,0.00,,,0.00,0.00,VWS V14.01,2013-01-20 05:30:00,
2013-01-19 23:31:00,32.6,19.9,29.95,West,279,27.5,37.4,59,0.00,,,0.00,0.00,VWS V14.01,2013-01-20 05:31:00,
2013-01-19 23:33:00,32.1,19.8,29.95,West,269,20.9,26.4,60,0.00,,,0.00,0.00,VWS V14.01,2013-01-20 05:33:00,
2013-01-19 23:34:00,31.9,20.0,29.95,WNW,298,15.4,26.4,61,0.00,,,0.00,0.00,VWS V14.01,2013-01-20 05:34:00,
2013-01-19 23:36:00,31.7,20.2,29.96,WNW,286,18.7,23.1,62,0.00,,,0.00,0.00,VWS V14.01,2013-01-20 05:36:00,
2013-01-19 23:39:00,31.3,19.8,29.96,West,278,29.7,29.7,62,0.00,,,0.00,0.00,VWS V14.01,2013-01-20 05:39:00,
2013-01-19 23:41:00,31.1,20.0,29.96,WNW,287,20.9,23.1,63,0.00,,,0.00,0.00,VWS V14.01,2013-01-20 05:41:00,
2013-01-19 23:44:00,30.8,19.7,29.96,WNW,295,17.6,28.6,63,0.00,,,0.00,0.00,VWS V14.01,2013-01-20 05:44:00,
2013-01-19 23:45:00,30.8,19.7,29.96,West,280,22.0,22.0,63,0.00,,,0.00,0.00,VWS V14.01,2013-01-20 05:45:00,
2013-01-19 23:46:00,30.7,20.0,29.96,WSW,239,20.9,26.4,64,0.00,,,0.00,0.00,VWS V14.01,2013-01-20 05:46:00,
2013-01-19 23:47:00,30.6,19.9,29.96,West,265,27.5,27.5,64,0.00,,,0.00,0.00,VWS V14.01,2013-01-20 05:47:00,
2013-01-19 23:49:00,30.4,20.1,29.96,WNW,295,15.4,20.9,65,0.00,,,0.00,0.00,VWS V14.01,2013-01-20 05:49:00,
2013-01-19 23:51:00,30.3,20.0,29.97,West,268,19.8,31.9,65,0.00,,,0.00,0.00,VWS V14.01,2013-01-20 05:51:00,
2013-01-19 23:52:00,30.3,20.0,29.97,West,264,19.8,31.9,65,0.00,,,0.00,0.00,VWS V14.01,2013-01-20 05:52:00,
2013-01-19 23:55:00,30.2,19.9,29.97,WNW,293,16.5,25.3,65,0.00,,,0.00,0.00,VWS V14.01,2013-01-20 05:55:00,
2013-01-19 23:57:00,30.1,19.8,29.97,WSW,249,19.8,19.8,65,0.00,,,0.00,0.00,VWS V14.01,2013-01-20 05:57:00,
2013-01-19 23:58:00,30.0,20.0,29.97,WNW,299,11.0,22.0,66,0.00,,,0.00,0.00,VWS V14.01,2013-01-20 05:58:00,